Time,TemperatureF,DewpointF,PressureIn,WindDirection,WindDirectionDegrees,WindSpeedMPH,WindSpeedGustMPH,Humidity,HourlyPrecipIn,Conditions,Clouds,dailyrainin,SoftwareType,DateUTC
2013-03-29 00:00:00,33.2,26.5,30.34,NW,309,0.0,0.0,76,0.00,,,0.00,Wunderground v.1.15,2013-03-29 04:00:00,
2013-03-29 00:01:00,33.2,26.5,30.34,NW,309,0.0,0.0,76,0.00,,,0.00,Wunderground v.1.15,2013-03-29 04:01:00,
2013-03-29 00:02:00,33.2,26.5,30.34,NW,309,0.0,0.0,76,0.00,,,0.00,Wunderground v.1.15,2013-03-29 04:02:00,
2013-03-29 00:04:00,33.2,26.5,30.34,NW,309,0.0,0.0,76,0.00,,,0.00,Wunderground v.1.15,2013-03-29 04:04:00,
2013-03-29 00:07:00,33.0,26.3,30.34,NW,309,0.0,0.0,76,0.00,,,0.00,Wunderground v.1.15,2013-03-29 04:07:00,
2013-03-29 00:08:00,33.0,26.3,30.34,NW,309,0.0,0.0,76,0.00,,,0.00,Wunderground v.1.15,2013-03-29 04:08:00,
2013-03-29 00:10:00,32.9,26.2,30.34,NW,309,0.0,0.0,76,0.00,,,0.00,Wunderground v.1.15,2013-03-29 04:10:00,
2013-03-29 00:13:00,32.7,26.0,30.34,NW,309,0.0,0.0,76,0.00,,,0.00,Wunderground v.1.15,2013-03-29 04:13:00,
2013-03-29 00:15:00,32.6,25.9,30.34,NW,309,0.0,0.0,76,0.00,,,0.00,Wunderground v.1.15,2013-03-29 04:15:00,
2013-03-29 00:17:00,32.6,26.2,30.34,NW,309,0.0,0.0,77,0.00,,,0.00,Wunderground v.1.15,2013-03-29 04:17:00,
2013-03-29 00:18:00,32.6,26.2,30.34,NW,309,0.0,0.0,77,0.00,,,0.00,Wunderground v.1.15,2013-03-29 04:18:00,
2013-03-29 00:19:00,32.4,26.0,30.34,NW,309,0.0,0.0,77,0.00,,,0.00,Wunderground v.1.15,2013-03-29 04:19:00,
2013-03-29 00:23:00,32.3,25.9,30.34,NW,309,0.0,0.0,77,0.00,,,0.00,Wunderground v.1.15,2013-03-29 04:23:00,
2013-03-29 00:24:00,32.3,25.9,30.34,NW,309,0.0,0.0,77,0.00,,,0.00,Wunderground v.1.15,2013-03-29 04:24:00,
2013-03-29 00:25:00,32.3,25.9,30.34,NW,309,0.0,0.0,77,0.00,,,0.00,Wunderground v.1.15,2013-03-29 04:25:00,
2013-03-29 00:26:00,32.1,25.7,30.34,NW,309,0.0,0.0,77,0.00,,,0.00,Wunderground v.1.15,2013-03-29 04:26:00,
2013-03-29 00:30:00,31.8,25.4,30.34,NW,309,0.0,0.0,77,0.00,,,0.00,Wunderground v.1.15,2013-03-29 04:30:00,
2013-03-29 00:35:00,31.7,25.3,30.34,NW,309,0.0,0.0,77,0.00,,,0.00,Wunderground v.1.15,2013-03-29 04:35:00,
2013-03-29 00:37:00,31.5,25.1,30.34,NW,309,0.0,0.0,77,0.00,,,0.00,Wunderground v.1.15,2013-03-29 04:37:00,
2013-03-29 00:38:00,31.5,25.4,30.34,NW,309,0.0,0.0,78,0.00,,,0.00,Wunderground v.1.15,2013-03-29 04:38:00,
2013-03-29 00:40:00,31.5,25.4,30.34,NW,309,0.0,0.0,78,0.00,,,0.00,Wunderground v.1.15,2013-03-29 04:40:00,
2013-03-29 00:44:00,31.4,25.3,30.34,NW,309,0.0,0.0,78,0.00,,,0.00,Wunderground v.1.15,2013-03-29 04:44:00,
2013-03-29 00:45:00,31.2,25.1,30.34,NW,309,0.0,0.0,78,0.00,,,0.00,Wunderground v.1.15,2013-03-29 04:45:00,
2013-03-29 00:47:00,31.1,25.0,30.34,NW,309,0.0,0.0,78,0.00,,,0.00,Wunderground v.1.15,2013-03-29 04:47:00,
2013-03-29 00:50:00,30.9,24.8,30.34,NW,309,0.0,0.0,78,0.00,,,0.00,Wunderground v.1.15,2013-03-29 04:50:00,
2013-03-29 00:53:00,30.9,25.2,30.34,NW,309,0.0,0.0,79,0.00,,,0.00,Wunderground v.1.15,2013-03-29 04:53:00,
2013-03-29 00:54:00,30.8,25.1,30.34,NW,309,0.0,0.0,79,0.00,,,0.00,Wunderground v.1.15,2013-03-29 04:54:00,
2013-03-29 00:56:00,30.6,24.9,30.34,NW,309,0.0,0.0,79,0.00,,,0.00,Wunderground v.1.15,2013-03-29 04:56:00,
2013-03-29 00:57:00,30.6,24.9,30.34,NW,309,0.0,0.0,79,0.00,,,0.00,Wunderground v.1.15,2013-03-29 04:57:00,
2013-03-29 00:58:00,30.6,24.9,30.34,NW,309,0.0,0.0,79,0.00,,,0.00,Wunderground v.1.15,2013-03-29 04:58:00,
2013-03-29 01:02:00,30.6,25.2,30.34,NW,309,0.0,0.0,80,0.00,,,0.00,Wunderground v.1.15,2013-03-29 05:02:00,
2013-03-29 01:03:00,30.6,25.2,30.34,NW,309,0.0,0.0,80,0.00,,,0.00,Wunderground v.1.15,2013-03-29 05:03:00,
2013-03-29 01:06:00,30.8,25.7,30.34,NW,309,0.0,0.0,81,0.00,,,0.00,Wunderground v.1.15,2013-03-29 05:06:00,
2013-03-29 01:08:00,30.9,25.8,30.34,NW,309,0.0,0.0,81,0.00,,,0.00,Wunderground v.1.15,2013-03-29 05:08:00,
2013-03-29 01:09:00,30.9,25.8,30.34,NW,309,0.0,0.0,81,0.00,,,0.00,Wunderground v.1.15,2013-03-29 05:09:00,
2013-03-29 01:10:00,30.9,25.8,30.34,NW,309,0.0,0.0,81,0.00,,,0.00,Wunderground v.1.15,2013-03-29 05:10:00,
2013-03-29 01:14:00,30.6,25.2,30.34,NW,309,0.0,0.0,80,0.00,,,0.00,Wunderground v.1.15,2013-03-29 05:14:00,
2013-03-29 01:15:00,30.6,25.2,30.34,NW,309,0.0,0.0,80,0.00,,,0.00,Wunderground v.1.15,2013-03-29 05:15:00,
2013-03-29 01:16:00,30.5,25.1,30.34,NW,309,0.0,0.0,80,0.00,,,0.00,Wunderground v.1.15,2013-03-29 05:16:00,
2013-03-29 01:21:00,30.3,25.2,30.34,NW,309,0.0,0.0,81,0.00,,,0.00,Wunderground v.1.15,2013-03-29 05:21:00,
2013-03-29 01:22:00,30.2,25.1,30.34,NW,309,0.0,0.0,81,0.00,,,0.00,Wunderground v.1.15,2013-03-29 05:22:00,
2013-03-29 01:23:00,30.2,25.1,30.34,NW,309,0.0,0.0,81,0.00,,,0.00,Wunderground v.1.15,2013-03-29 05:23:00,
2013-03-29 01:29:00,30.0,24.9,30.34,NW,309,0.0,0.0,81,0.00,,,0.00,Wunderground v.1.15,2013-03-29 05:29:00,
2013-03-29 01:30:00,30.0,24.9,30.34,NW,309,0.0,0.0,81,0.00,,,0.00,Wunderground v.1.15,2013-03-29 05:30:00,
2013-03-29 01:31:00,30.0,24.9,30.34,NW,309,0.0,0.0,81,0.00,,,0.00,Wunderground v.1.15,2013-03-29 05:31:00,
2013-03-29 01:32:00,30.0,24.9,30.34,NW,309,0.0,0.0,81,0.00,,,0.00,Wunderground v.1.15,2013-03-29 05:32:00,
2013-03-29 01:37:00,30.0,24.9,30.34,NW,309,0.0,0.0,81,0.00,,,0.00,Wunderground v.1.15,2013-03-29 05:37:00,
2013-03-29 01:39:00,29.9,24.8,30.34,NW,309,0.0,0.0,81,0.00,,,0.00,Wunderground v.1.15,2013-03-29 05:39:00,
2013-03-29 01:41:00,29.9,24.8,30.34,NW,309,0.0,0.0,81,0.00,,,0.00,Wunderground v.1.15,2013-03-29 05:41:00,
2013-03-29 01:42:00,29.9,24.8,30.34,NW,309,0.0,0.0,81,0.00,,,0.00,Wunderground v.1.15,2013-03-29 05:42:00,
2013-03-29 01:44:00,29.9,25.1,30.34,NW,309,0.0,0.0,82,0.00,,,0.00,Wunderground v.1.15,2013-03-29 05:44:00,
2013-03-29 01:45:00,29.9,25.1,30.34,NW,309,0.0,0.0,82,0.00,,,0.00,Wunderground v.1.15,2013-03-29 05:45:00,
2013-03-29 01:49:00,29.9,25.1,30.34,NW,309,0.0,0.0,82,0.00,,,0.00,Wunderground v.1.15,2013-03-29 05:49:00,
2013-03-29 01:51:00,29.9,25.1,30.34,NW,309,0.0,0.0,82,0.00,,,0.00,Wunderground v.1.15,2013-03-29 05:51:00,
2013-03-29 01:52:00,29.9,25.1,30.34,NW,309,0.0,0.0,82,0.00,,,0.00,Wunderground v.1.15,2013-03-29 05:52:00,
2013-03-29 01:56:00,29.8,25.0,30.34,NW,309,0.0,0.0,82,0.00,,,0.00,Wunderground v.1.15,2013-03-29 05:56:00,
2013-03-29 01:57:00,29.8,25.0,30.34,NW,309,0.0,0.0,82,0.00,,,0.00,Wunderground v.1.15,2013-03-29 05:57:00,
2013-03-29 01:59:00,29.8,25.0,30.34,NW,309,0.0,0.0,82,0.00,,,0.00,Wunderground v.1.15,2013-03-29 05:59:00,
2013-03-29 02:01:00,29.6,24.8,30.33,NW,309,0.0,0.0,82,0.00,,,0.00,Wunderground v.1.15,2013-03-29 06:01:00,
2013-03-29 02:03:00,29.6,24.8,30.33,NW,309,0.0,0.0,82,0.00,,,0.00,Wunderground v.1.15,2013-03-29 06:03:00,
2013-03-29 02:08:00,29.6,25.1,30.33,NW,309,0.0,0.0,83,0.00,,,0.00,Wunderground v.1.15,2013-03-29 06:08:00,
2013-03-29 02:10:00,29.5,24.7,30.33,NW,309,0.0,0.0,82,0.00,,,0.00,Wunderground v.1.15,2013-03-29 06:10:00,
2013-03-29 02:11:00,29.3,24.5,30.33,NW,309,0.0,0.0,82,0.00,,,0.00,Wunderground v.1.15,2013-03-29 06:11:00,
2013-03-29 02:14:00,29.2,24.7,30.33,NW,309,0.0,0.0,83,0.00,,,0.00,Wunderground v.1.15,2013-03-29 06:14:00,
2013-03-29 02:16:00,29.2,24.7,30.33,NW,309,0.0,0.0,83,0.00,,,0.00,Wunderground v.1.15,2013-03-29 06:16:00,
2013-03-29 02:18:00,29.2,24.7,30.33,NW,309,0.0,0.0,83,0.00,,,0.00,Wunderground v.1.15,2013-03-29 06:18:00,
2013-03-29 02:20:00,29.2,25.0,30.33,NW,309,0.0,0.0,84,0.00,,,0.00,Wunderground v.1.15,2013-03-29 06:20:00,
2013-03-29 02:24:00,29.2,25.0,30.33,NW,309,0.0,0.0,84,0.00,,,0.00,Wunderground v.1.15,2013-03-29 06:24:00,
2013-03-29 02:25:00,29.2,25.0,30.33,NW,309,0.0,0.0,84,0.00,,,0.00,Wunderground v.1.15,2013-03-29 06:25:00,
2013-03-29 02:27:00,29.0,24.8,30.33,NW,309,0.0,0.0,84,0.00,,,0.00,Wunderground v.1.15,2013-03-29 06:27:00,
2013-03-29 02:30:00,29.0,24.8,30.33,NW,309,0.0,0.0,84,0.00,,,0.00,Wunderground v.1.15,2013-03-29 06:30:00,
2013-03-29 02:31:00,29.0,24.8,30.33,NW,309,0.0,0.0,84,0.00,,,0.00,Wunderground v.1.15,2013-03-29 06:31:00,
2013-03-29 02:32:00,29.0,24.8,30.33,NW,309,0.0,0.0,84,0.00,,,0.00,Wunderground v.1.15,2013-03-29 06:32:00,
2013-03-29 02:35:00,29.0,24.8,30.33,NW,309,0.0,0.0,84,0.00,,,0.00,Wunderground v.1.15,2013-03-29 06:35:00,
2013-03-29 02:37:00,28.9,24.7,30.33,NW,309,0.0,0.0,84,0.00,,,0.00,Wunderground v.1.15,2013-03-29 06:37:00,
2013-03-29 02:39:00,28.9,24.7,30.33,NW,309,0.0,0.0,84,0.00,,,0.00,Wunderground v.1.15,2013-03-29 06:39:00,
2013-03-29 02:41:00,28.9,24.7,30.33,NW,309,0.0,0.0,84,0.00,,,0.00,Wunderground v.1.15,2013-03-29 06:41:00,
2013-03-29 02:42:00,28.9,24.7,30.33,NW,309,0.0,0.0,84,0.00,,,0.00,Wunderground v.1.15,2013-03-29 06:42:00,
2013-03-29 02:46:00,28.9,24.7,30.33,NW,309,0.0,0.0,84,0.00,,,0.00,Wunderground v.1.15,2013-03-29 06:46:00,
2013-03-29 02:47:00,28.9,24.7,30.33,NW,309,0.0,0.0,84,0.00,,,0.00,Wunderground v.1.15,2013-03-29 06:47:00,
2013-03-29 02:48:00,28.9,24.7,30.33,NW,309,0.0,0.0,84,0.00,,,0.00,Wunderground v.1.15,2013-03-29 06:48:00,
2013-03-29 02:53:00,28.9,24.7,30.33,NW,309,0.0,0.0,84,0.00,,,0.00,Wunderground v.1.15,2013-03-29 06:53:00,
2013-03-29 02:54:00,28.9,24.7,30.33,NW,309,0.0,0.0,84,0.00,,,0.00,Wunderground v.1.15,2013-03-29 06:54:00,
2013-03-29 03:00:00,28.9,24.7,30.33,NW,309,0.0,0.0,84,0.00,,,0.00,Wunderground v.1.15,2013-03-29 07:00:00,
2013-03-29 03:01:00,28.9,24.7,30.33,NW,309,0.0,0.0,84,0.00,,,0.00,Wunderground v.1.15,2013-03-29 07:01:00,
2013-03-29 03:03:00,28.7,24.5,30.33,NW,309,0.0,0.0,84,0.00,,,0.00,Wunderground v.1.15,2013-03-29 07:03:00,
2013-03-29 03:06:00,28.7,24.5,30.33,NW,309,0.0,0.0,84,0.00,,,0.00,Wunderground v.1.15,2013-03-29 07:06:00,
2013-03-29 03:07:00,28.7,24.5,30.33,NW,309,0.0,0.0,84,0.00,,,0.00,Wunderground v.1.15,2013-03-29 07:07:00,
2013-03-29 03:08:00,28.7,24.5,30.33,NW,309,0.0,0.0,84,0.00,,,0.00,Wunderground v.1.15,2013-03-29 07:08:00,
2013-03-29 03:12:00,28.7,24.8,30.33,NW,309,0.0,0.0,85,0.00,,,0.00,Wunderground v.1.15,2013-03-29 07:12:00,
2013-03-29 03:14:00,28.7,24.8,30.33,NW,309,0.0,0.0,85,0.00,,,0.00,Wunderground v.1.15,2013-03-29 07:14:00,
2013-03-29 03:15:00,28.7,24.8,30.33,NW,309,0.0,0.0,85,0.00,,,0.00,Wunderground v.1.15,2013-03-29 07:15:00,
2013-03-29 03:19:00,29.0,25.1,30.33,NW,309,0.0,0.0,85,0.00,,,0.00,Wunderground v.1.15,2013-03-29 07:19:00,
2013-03-29 03:20:00,29.0,25.1,30.33,NW,309,0.0,0.0,85,0.00,,,0.00,Wunderground v.1.15,2013-03-29 07:20:00,
2013-03-29 03:21:00,29.2,25.3,30.33,NW,309,0.0,0.0,85,0.00,,,0.00,Wunderground v.1.15,2013-03-29 07:21:00,
2013-03-29 03:22:00,29.2,25.3,30.33,NW,309,0.0,0.0,85,0.00,,,0.00,Wunderground v.1.15,2013-03-29 07:22:00,
2013-03-29 03:26:00,29.0,25.1,30.33,NW,309,0.0,0.0,85,0.00,,,0.00,Wunderground v.1.15,2013-03-29 07:26:00,
2013-03-29 03:27:00,29.0,25.1,30.33,NW,309,0.0,0.0,85,0.00,,,0.00,Wunderground v.1.15,2013-03-29 07:27:00,
2013-03-29 03:31:00,28.9,25.0,30.32,NW,309,0.0,0.0,85,0.00,,,0.00,Wunderground v.1.15,2013-03-29 07:31:00,
2013-03-29 03:33:00,28.9,25.0,30.32,NW,309,0.0,0.0,85,0.00,,,0.00,Wunderground v.1.15,2013-03-29 07:33:00,
2013-03-29 03:34:00,28.9,25.0,30.32,NW,309,0.0,0.0,85,0.00,,,0.00,Wunderground v.1.15,2013-03-29 07:34:00,
2013-03-29 03:37:00,28.7,24.8,30.32,NW,309,0.0,0.0,85,0.00,,,0.00,Wunderground v.1.15,2013-03-29 07:37:00,
2013-03-29 03:38:00,28.7,24.8,30.32,NW,309,0.0,0.0,85,0.00,,,0.00,Wunderground v.1.15,2013-03-29 07:38:00,
2013-03-29 03:42:00,28.9,25.0,30.32,NW,309,0.0,0.0,85,0.00,,,0.00,Wunderground v.1.15,2013-03-29 07:42:00,
2013-03-29 03:45:00,28.9,25.0,30.32,NW,309,0.0,0.0,85,0.00,,,0.00,Wunderground v.1.15,2013-03-29 07:45:00,
2013-03-29 03:46:00,28.9,25.0,30.32,NW,309,0.0,0.0,85,0.00,,,0.00,Wunderground v.1.15,2013-03-29 07:46:00,
2013-03-29 03:49:00,28.9,25.0,30.32,NW,309,0.0,0.0,85,0.00,,,0.00,Wunderground v.1.15,2013-03-29 07:49:00,
2013-03-29 03:51:00,28.9,25.2,30.32,NW,309,0.0,0.0,86,0.00,,,0.00,Wunderground v.1.15,2013-03-29 07:51:00,
2013-03-29 03:53:00,28.9,25.2,30.32,NW,309,0.0,0.0,86,0.00,,,0.00,Wunderground v.1.15,2013-03-29 07:53:00,
2013-03-29 03:54:00,28.9,25.2,30.32,NW,309,0.0,0.0,86,0.00,,,0.00,Wunderground v.1.15,2013-03-29 07:54:00,
2013-03-29 03:58:00,28.9,25.2,30.32,NW,309,0.0,0.0,86,0.00,,,0.00,Wunderground v.1.15,2013-03-29 07:58:00,
2013-03-29 03:59:00,28.9,25.2,30.32,NW,309,0.0,0.0,86,0.00,,,0.00,Wunderground v.1.15,2013-03-29 07:59:00,
2013-03-29 04:01:00,29.0,25.3,30.32,NW,309,0.0,0.0,86,0.00,,,0.00,Wunderground v.1.15,2013-03-29 08:01:00,
2013-03-29 04:05:00,29.0,25.3,30.32,NW,309,0.0,0.0,86,0.00,,,0.00,Wunderground v.1.15,2013-03-29 08:05:00,
2013-03-29 04:06:00,29.0,25.3,30.32,NW,309,0.0,0.0,86,0.00,,,0.00,Wunderground v.1.15,2013-03-29 08:06:00,
2013-03-29 04:10:00,29.0,25.3,30.32,NW,309,0.0,0.0,86,0.00,,,0.00,Wunderground v.1.15,2013-03-29 08:10:00,
2013-03-29 04:11:00,29.0,25.3,30.32,NW,309,0.0,0.0,86,0.00,,,0.00,Wunderground v.1.15,2013-03-29 08:11:00,
2013-03-29 04:14:00,29.0,25.3,30.32,NW,309,0.0,0.0,86,0.00,,,0.00,Wunderground v.1.15,2013-03-29 08:14:00,
2013-03-29 04:15:00,29.0,25.3,30.32,NW,309,0.0,0.0,86,0.00,,,0.00,Wunderground v.1.15,2013-03-29 08:15:00,
2013-03-29 04:19:00,28.9,25.2,30.32,NW,309,0.0,0.0,86,0.00,,,0.00,Wunderground v.1.15,2013-03-29 08:19:00,
2013-03-29 04:20:00,28.9,25.2,30.32,NW,309,0.0,0.0,86,0.00,,,0.00,Wunderground v.1.15,2013-03-29 08:20:00,
2013-03-29 04:23:00,28.9,25.2,30.32,NW,309,0.0,0.0,86,0.00,,,0.00,Wunderground v.1.15,2013-03-29 08:23:00,
2013-03-29 04:25:00,28.9,25.2,30.32,NW,309,0.0,0.0,86,0.00,,,0.00,Wunderground v.1.15,2013-03-29 08:25:00,
2013-03-29 04:29:00,28.9,25.2,30.32,NW,309,0.0,0.0,86,0.00,,,0.00,Wunderground v.1.15,2013-03-29 08:29:00,
2013-03-29 04:31:00,28.7,25.0,30.32,NW,309,0.0,0.0,86,0.00,,,0.00,Wunderground v.1.15,2013-03-29 08:31:00,
2013-03-29 04:35:00,28.7,25.0,30.32,NW,309,0.0,0.0,86,0.00,,,0.00,Wunderground v.1.15,2013-03-29 08:35:00,
2013-03-29 04:36:00,28.7,25.0,30.32,NW,309,0.0,0.0,86,0.00,,,0.00,Wunderground v.1.15,2013-03-29 08:36:00,
2013-03-29 04:38:00,28.7,25.0,30.32,NW,309,0.0,0.0,86,0.00,,,0.00,Wunderground v.1.15,2013-03-29 08:38:00,
2013-03-29 04:39:00,28.7,25.0,30.32,NW,309,0.0,0.0,86,0.00,,,0.00,Wunderground v.1.15,2013-03-29 08:39:00,
2013-03-29 04:43:00,28.7,25.0,30.32,NW,309,0.0,0.0,86,0.00,,,0.00,Wunderground v.1.15,2013-03-29 08:43:00,
2013-03-29 04:44:00,28.7,25.0,30.32,NW,309,0.0,0.0,86,0.00,,,0.00,Wunderground v.1.15,2013-03-29 08:44:00,
2013-03-29 04:47:00,28.7,25.0,30.32,NW,309,0.0,0.0,86,0.00,,,0.00,Wunderground v.1.15,2013-03-29 08:47:00,
2013-03-29 04:48:00,28.7,25.0,30.32,NW,309,0.0,0.0,86,0.00,,,0.00,Wunderground v.1.15,2013-03-29 08:48:00,
2013-03-29 04:49:00,28.7,25.0,30.32,NW,309,0.0,0.0,86,0.00,,,0.00,Wunderground v.1.15,2013-03-29 08:49:00,
2013-03-29 04:52:00,28.7,25.0,30.32,NW,309,0.0,0.0,86,0.00,,,0.00,Wunderground v.1.15,2013-03-29 08:52:00,
2013-03-29 04:55:00,28.6,24.9,30.32,NW,309,0.0,0.0,86,0.00,,,0.00,Wunderground v.1.15,2013-03-29 08:55:00,
2013-03-29 04:56:00,28.6,24.9,30.32,NW,309,0.0,0.0,86,0.00,,,0.00,Wunderground v.1.15,2013-03-29 08:56:00,
2013-03-29 04:57:00,28.6,24.9,30.32,NW,309,0.0,0.0,86,0.00,,,0.00,Wunderground v.1.15,2013-03-29 08:57:00,
2013-03-29 05:00:00,28.6,24.9,30.32,NW,309,0.0,0.0,86,0.00,,,0.00,Wunderground v.1.15,2013-03-29 09:00:00,
2013-03-29 05:01:00,28.6,24.9,30.32,NW,309,0.0,0.0,86,0.00,,,0.00,Wunderground v.1.15,2013-03-29 09:01:00,
2013-03-29 05:02:00,28.4,24.7,30.32,NW,309,0.0,0.0,86,0.00,,,0.00,Wunderground v.1.15,2013-03-29 09:02:00,
2013-03-29 05:04:00,28.3,24.6,30.32,NW,309,0.0,0.0,86,0.00,,,0.00,Wunderground v.1.15,2013-03-29 09:04:00,
2013-03-29 05:07:00,28.1,24.5,30.32,NW,309,0.0,0.0,86,0.00,,,0.00,Wunderground v.1.15,2013-03-29 09:07:00,
2013-03-29 05:08:00,28.1,24.5,30.32,NW,309,0.0,0.0,86,0.00,,,0.00,Wunderground v.1.15,2013-03-29 09:08:00,
2013-03-29 05:11:00,28.0,24.4,30.32,NW,309,0.0,0.0,86,0.00,,,0.00,Wunderground v.1.15,2013-03-29 09:11:00,
2013-03-29 05:12:00,28.0,24.4,30.32,NW,309,0.0,0.0,86,0.00,,,0.00,Wunderground v.1.15,2013-03-29 09:12:00,
2013-03-29 05:14:00,28.0,24.4,30.32,NW,309,0.0,0.0,86,0.00,,,0.00,Wunderground v.1.15,2013-03-29 09:14:00,
2013-03-29 05:17:00,28.0,24.6,30.32,NW,309,0.0,0.0,87,0.00,,,0.00,Wunderground v.1.15,2013-03-29 09:17:00,
2013-03-29 05:18:00,28.0,24.4,30.32,NW,309,0.0,0.0,86,0.00,,,0.00,Wunderground v.1.15,2013-03-29 09:18:00,
2013-03-29 05:19:00,28.0,24.6,30.32,NW,309,0.0,0.0,87,0.00,,,0.00,Wunderground v.1.15,2013-03-29 09:19:00,
2013-03-29 05:22:00,28.0,24.6,30.32,NW,309,0.0,0.0,87,0.00,,,0.00,Wunderground v.1.15,2013-03-29 09:22:00,
2013-03-29 05:23:00,28.0,24.6,30.32,NW,309,0.0,0.0,87,0.00,,,0.00,Wunderground v.1.15,2013-03-29 09:23:00,
2013-03-29 05:27:00,28.0,24.6,30.32,NW,309,0.0,0.0,87,0.00,,,0.00,Wunderground v.1.15,2013-03-29 09:27:00,
2013-03-29 05:28:00,28.0,24.6,30.32,NW,309,0.0,0.0,87,0.00,,,0.00,Wunderground v.1.15,2013-03-29 09:28:00,
2013-03-29 05:30:00,27.8,24.4,30.32,NW,309,0.0,0.0,87,0.00,,,0.00,Wunderground v.1.15,2013-03-29 09:30:00,
2013-03-29 05:34:00,27.8,24.4,30.32,NW,309,0.0,0.0,87,0.00,,,0.00,Wunderground v.1.15,2013-03-29 09:34:00,
2013-03-29 05:35:00,27.8,24.4,30.32,NW,309,0.0,0.0,87,0.00,,,0.00,Wunderground v.1.15,2013-03-29 09:35:00,
2013-03-29 05:36:00,27.8,24.4,30.32,NW,309,0.0,0.0,87,0.00,,,0.00,Wunderground v.1.15,2013-03-29 09:36:00,
2013-03-29 05:39:00,27.8,24.4,30.32,NW,309,0.0,0.0,87,0.00,,,0.00,Wunderground v.1.15,2013-03-29 09:39:00,
2013-03-29 05:43:00,27.8,24.4,30.32,NW,309,0.0,0.0,87,0.00,,,0.00,Wunderground v.1.15,2013-03-29 09:43:00,
2013-03-29 05:45:00,27.7,24.3,30.32,NW,309,0.0,0.0,87,0.00,,,0.00,Wunderground v.1.15,2013-03-29 09:45:00,
2013-03-29 05:46:00,27.7,24.3,30.32,NW,309,0.0,0.0,87,0.00,,,0.00,Wunderground v.1.15,2013-03-29 09:46:00,
2013-03-29 05:49:00,27.7,24.3,30.32,NW,309,0.0,0.0,87,0.00,,,0.00,Wunderground v.1.15,2013-03-29 09:49:00,
2013-03-29 05:51:00,27.7,24.3,30.32,NW,309,0.0,0.0,87,0.00,,,0.00,Wunderground v.1.15,2013-03-29 09:51:00,
2013-03-29 05:53:00,27.7,24.3,30.32,NW,309,0.0,0.0,87,0.00,,,0.00,Wunderground v.1.15,2013-03-29 09:53:00,
2013-03-29 05:54:00,27.7,24.3,30.32,NW,309,0.0,0.0,87,0.00,,,0.00,Wunderground v.1.15,2013-03-29 09:54:00,
2013-03-29 05:56:00,27.7,24.3,30.32,NW,309,0.0,0.0,87,0.00,,,0.00,Wunderground v.1.15,2013-03-29 09:56:00,
2013-03-29 05:58:00,27.7,24.3,30.32,NW,309,0.0,0.0,87,0.00,,,0.00,Wunderground v.1.15,2013-03-29 09:58:00,
2013-03-29 06:01:00,27.5,24.1,30.32,NW,309,0.0,0.0,87,0.00,,,0.00,Wunderground v.1.15,2013-03-29 10:01:00,
2013-03-29 06:02:00,27.5,24.1,30.32,NW,309,0.0,0.0,87,0.00,,,0.00,Wunderground v.1.15,2013-03-29 10:02:00,
2013-03-29 06:04:00,27.5,24.1,30.32,NW,309,0.0,0.0,87,0.00,,,0.00,Wunderground v.1.15,2013-03-29 10:04:00,
2013-03-29 06:07:00,27.5,24.1,30.32,NW,309,0.0,0.0,87,0.00,,,0.00,Wunderground v.1.15,2013-03-29 10:07:00,
2013-03-29 06:08:00,27.4,24.0,30.32,NW,309,0.0,0.0,87,0.00,,,0.00,Wunderground v.1.15,2013-03-29 10:08:00,
2013-03-29 06:10:00,27.4,24.0,30.32,NW,309,0.0,0.0,87,0.00,,,0.00,Wunderground v.1.15,2013-03-29 10:10:00,
2013-03-29 06:12:00,27.4,24.0,30.32,NW,309,0.0,0.0,87,0.00,,,0.00,Wunderground v.1.15,2013-03-29 10:12:00,
2013-03-29 06:13:00,27.4,24.0,30.32,NW,309,0.0,0.0,87,0.00,,,0.00,Wunderground v.1.15,2013-03-29 10:13:00,
2013-03-29 06:17:00,27.4,24.0,30.32,NW,309,0.0,0.0,87,0.00,,,0.00,Wunderground v.1.15,2013-03-29 10:17:00,
2013-03-29 06:18:00,27.4,24.0,30.32,NW,309,0.0,0.0,87,0.00,,,0.00,Wunderground v.1.15,2013-03-29 10:18:00,
2013-03-29 06:19:00,27.2,23.8,30.32,NW,309,0.0,0.0,87,0.00,,,0.00,Wunderground v.1.15,2013-03-29 10:19:00,
2013-03-29 06:25:00,27.1,23.7,30.32,NW,309,0.0,0.0,87,0.00,,,0.00,Wunderground v.1.15,2013-03-29 10:25:00,
2013-03-29 06:26:00,27.1,23.7,30.32,NW,309,0.0,0.0,87,0.00,,,0.00,Wunderground v.1.15,2013-03-29 10:26:00,
2013-03-29 06:27:00,27.1,23.7,30.32,NW,309,0.0,0.0,87,0.00,,,0.00,Wunderground v.1.15,2013-03-29 10:27:00,
2013-03-29 06:30:00,26.9,23.5,30.32,NW,309,0.0,0.0,87,0.00,,,0.00,Wunderground v.1.15,2013-03-29 10:30:00,
2013-03-29 06:31:00,26.9,23.8,30.32,NW,309,0.0,0.0,88,0.00,,,0.00,Wunderground v.1.15,2013-03-29 10:31:00,
2013-03-29 06:34:00,27.1,24.0,30.32,NW,309,0.0,0.0,88,0.00,,,0.00,Wunderground v.1.15,2013-03-29 10:34:00,
2013-03-29 06:37:00,27.2,24.1,30.32,NW,309,0.0,0.0,88,0.00,,,0.00,Wunderground v.1.15,2013-03-29 10:37:00,
2013-03-29 06:38:00,27.2,24.1,30.32,NW,309,0.0,0.0,88,0.00,,,0.00,Wunderground v.1.15,2013-03-29 10:38:00,
2013-03-29 06:40:00,27.2,24.1,30.32,NW,309,0.0,0.0,88,0.00,,,0.00,Wunderground v.1.15,2013-03-29 10:40:00,
2013-03-29 06:41:00,27.2,24.1,30.32,NW,309,0.0,0.0,88,0.00,,,0.00,Wunderground v.1.15,2013-03-29 10:41:00,
2013-03-29 06:45:00,27.1,24.0,30.32,NW,309,0.0,0.0,88,0.00,,,0.00,Wunderground v.1.15,2013-03-29 10:45:00,
2013-03-29 06:46:00,27.1,24.0,30.32,NW,309,0.0,0.0,88,0.00,,,0.00,Wunderground v.1.15,2013-03-29 10:46:00,
2013-03-29 06:49:00,27.1,24.0,30.32,NW,309,0.0,0.0,88,0.00,,,0.00,Wunderground v.1.15,2013-03-29 10:49:00,
2013-03-29 06:51:00,27.1,24.0,30.32,NW,309,0.0,0.0,88,0.00,,,0.00,Wunderground v.1.15,2013-03-29 10:51:00,
2013-03-29 06:52:00,26.9,23.8,30.32,NW,309,0.0,0.0,88,0.00,,,0.00,Wunderground v.1.15,2013-03-29 10:52:00,
2013-03-29 06:55:00,26.8,23.7,30.32,NW,309,0.0,0.0,88,0.00,,,0.00,Wunderground v.1.15,2013-03-29 10:55:00,
2013-03-29 06:57:00,26.8,23.7,30.32,NW,309,0.0,0.0,88,0.00,,,0.00,Wunderground v.1.15,2013-03-29 10:57:00,
2013-03-29 07:01:00,26.8,23.7,30.32,NW,309,0.0,0.0,88,0.00,,,0.00,Wunderground v.1.15,2013-03-29 11:01:00,
2013-03-29 07:02:00,26.6,23.5,30.32,NW,309,0.0,0.0,88,0.00,,,0.00,Wunderground v.1.15,2013-03-29 11:02:00,
2013-03-29 07:03:00,26.6,23.5,30.32,NW,309,0.0,0.0,88,0.00,,,0.00,Wunderground v.1.15,2013-03-29 11:03:00,
2013-03-29 07:05:00,26.5,23.4,30.32,NW,309,0.0,0.0,88,0.00,,,0.00,Wunderground v.1.15,2013-03-29 11:05:00,
2013-03-29 07:08:00,26.5,23.4,30.32,NW,309,0.0,0.0,88,0.00,,,0.00,Wunderground v.1.15,2013-03-29 11:08:00,
2013-03-29 07:10:00,26.5,23.4,30.32,NW,309,0.0,0.0,88,0.00,,,0.00,Wunderground v.1.15,2013-03-29 11:10:00,
2013-03-29 07:13:00,26.5,23.4,30.32,NW,309,0.0,0.0,88,0.00,,,0.00,Wunderground v.1.15,2013-03-29 11:13:00,
2013-03-29 07:14:00,26.5,23.4,30.32,NW,309,0.0,0.0,88,0.00,,,0.00,Wunderground v.1.15,2013-03-29 11:14:00,
2013-03-29 07:16:00,26.5,23.4,30.32,NW,309,0.0,0.0,88,0.00,,,0.00,Wunderground v.1.15,2013-03-29 11:16:00,
2013-03-29 07:19:00,26.6,23.5,30.32,NW,309,0.0,0.0,88,0.00,,,0.00,Wunderground v.1.15,2013-03-29 11:19:00,
2013-03-29 07:20:00,26.6,23.5,30.32,NW,309,0.0,0.0,88,0.00,,,0.00,Wunderground v.1.15,2013-03-29 11:20:00,
2013-03-29 07:23:00,26.8,24.0,30.32,NW,309,0.0,0.0,89,0.00,,,0.00,Wunderground v.1.15,2013-03-29 11:23:00,
2013-03-29 07:25:00,26.9,24.1,30.32,NW,309,0.0,0.0,89,0.00,,,0.00,Wunderground v.1.15,2013-03-29 11:25:00,
2013-03-29 07:27:00,27.1,24.3,30.32,NW,309,0.0,0.0,89,0.00,,,0.00,Wunderground v.1.15,2013-03-29 11:27:00,
2013-03-29 07:30:00,27.5,24.7,30.32,NW,309,0.0,0.0,89,0.00,,,0.00,Wunderground v.1.15,2013-03-29 11:30:00,
2013-03-29 07:33:00,27.8,25.0,30.32,NW,309,0.0,0.0,89,0.00,,,0.00,Wunderground v.1.15,2013-03-29 11:33:00,
2013-03-29 07:36:00,27.8,25.0,30.32,NW,309,0.0,0.0,89,0.00,,,0.00,Wunderground v.1.15,2013-03-29 11:36:00,
2013-03-29 07:37:00,27.8,25.0,30.32,NW,309,0.0,0.0,89,0.00,,,0.00,Wunderground v.1.15,2013-03-29 11:37:00,
2013-03-29 07:41:00,28.0,25.2,30.32,NW,309,0.0,0.0,89,0.00,,,0.00,Wunderground v.1.15,2013-03-29 11:41:00,
2013-03-29 07:43:00,28.0,25.2,30.32,NW,309,0.0,0.0,89,0.00,,,0.00,Wunderground v.1.15,2013-03-29 11:43:00,
2013-03-29 07:44:00,28.1,25.3,30.32,NW,309,0.0,0.0,89,0.00,,,0.00,Wunderground v.1.15,2013-03-29 11:44:00,
2013-03-29 07:47:00,28.1,25.3,30.33,NW,309,0.0,0.0,89,0.00,,,0.00,Wunderground v.1.15,2013-03-29 11:47:00,
2013-03-29 07:48:00,28.1,25.3,30.33,NW,309,0.0,0.0,89,0.00,,,0.00,Wunderground v.1.15,2013-03-29 11:48:00,
2013-03-29 07:50:00,28.1,25.3,30.33,NW,309,0.0,0.0,89,0.00,,,0.00,Wunderground v.1.15,2013-03-29 11:50:00,
2013-03-29 07:53:00,28.1,25.3,30.33,NW,309,0.0,0.0,89,0.00,,,0.00,Wunderground v.1.15,2013-03-29 11:53:00,
2013-03-29 07:54:00,28.1,25.3,30.33,NW,309,0.0,0.0,89,0.00,,,0.00,Wunderground v.1.15,2013-03-29 11:54:00,
2013-03-29 07:55:00,28.3,25.5,30.33,NW,309,0.0,0.0,89,0.00,,,0.00,Wunderground v.1.15,2013-03-29 11:55:00,
2013-03-29 07:56:00,28.3,25.5,30.33,NW,309,0.0,0.0,89,0.00,,,0.00,Wunderground v.1.15,2013-03-29 11:56:00,
2013-03-29 08:00:00,28.4,25.6,30.33,NW,309,0.0,0.0,89,0.00,,,0.00,Wunderground v.1.15,2013-03-29 12:00:00,
2013-03-29 08:01:00,28.6,25.8,30.33,NW,309,0.0,0.0,89,0.00,,,0.00,Wunderground v.1.15,2013-03-29 12:01:00,
2013-03-29 08:02:00,28.6,25.8,30.33,NW,309,0.0,0.0,89,0.00,,,0.00,Wunderground v.1.15,2013-03-29 12:02:00,
2013-03-29 08:04:00,28.7,25.9,30.33,NW,309,0.0,0.0,89,0.00,,,0.00,Wunderground v.1.15,2013-03-29 12:04:00,
2013-03-29 08:06:00,28.9,26.1,30.33,NW,309,0.0,0.0,89,0.00,,,0.00,Wunderground v.1.15,2013-03-29 12:06:00,
2013-03-29 08:10:00,29.2,26.4,30.33,NW,309,0.0,0.0,89,0.00,,,0.00,Wunderground v.1.15,2013-03-29 12:10:00,
2013-03-29 08:12:00,29.2,26.4,30.33,NW,309,0.0,0.0,89,0.00,,,0.00,Wunderground v.1.15,2013-03-29 12:12:00,
2013-03-29 08:13:00,29.2,26.4,30.33,NW,309,0.0,0.0,89,0.00,,,0.00,Wunderground v.1.15,2013-03-29 12:13:00,
2013-03-29 08:16:00,29.2,26.4,30.33,NW,309,0.0,0.0,89,0.00,,,0.00,Wunderground v.1.15,2013-03-29 12:16:00,
2013-03-29 08:17:00,29.3,26.5,30.33,NW,309,0.0,0.0,89,0.00,,,0.00,Wunderground v.1.15,2013-03-29 12:17:00,
2013-03-29 08:18:00,29.3,26.5,30.33,NW,309,0.0,0.0,89,0.00,,,0.00,Wunderground v.1.15,2013-03-29 12:18:00,
2013-03-29 08:22:00,29.3,26.5,30.33,NW,309,0.0,0.0,89,0.00,,,0.00,Wunderground v.1.15,2013-03-29 12:22:00,
2013-03-29 08:25:00,29.5,26.7,30.33,NW,309,0.0,0.0,89,0.00,,,0.00,Wunderground v.1.15,2013-03-29 12:25:00,
2013-03-29 08:27:00,29.5,26.7,30.33,NW,309,0.0,0.0,89,0.00,,,0.00,Wunderground v.1.15,2013-03-29 12:27:00,
2013-03-29 08:31:00,29.6,26.8,30.34,NW,309,0.0,0.0,89,0.00,,,0.00,Wunderground v.1.15,2013-03-29 12:31:00,
2013-03-29 08:32:00,29.6,26.8,30.34,NW,309,0.0,0.0,89,0.00,,,0.00,Wunderground v.1.15,2013-03-29 12:32:00,
2013-03-29 08:33:00,29.8,27.0,30.34,NW,309,0.0,0.0,89,0.00,,,0.00,Wunderground v.1.15,2013-03-29 12:33:00,
2013-03-29 08:34:00,29.8,27.0,30.34,NW,309,0.0,0.0,89,0.00,,,0.00,Wunderground v.1.15,2013-03-29 12:34:00,
2013-03-29 08:40:00,30.2,27.3,30.34,NW,309,0.0,0.0,89,0.00,,,0.00,Wunderground v.1.15,2013-03-29 12:40:00,
2013-03-29 08:44:00,30.3,27.4,30.34,NW,309,0.0,0.0,89,0.00,,,0.00,Wunderground v.1.15,2013-03-29 12:44:00,
2013-03-29 08:46:00,30.5,27.6,30.34,NW,309,0.0,0.0,89,0.00,,,0.00,Wunderground v.1.15,2013-03-29 12:46:00,
2013-03-29 08:47:00,30.5,27.6,30.34,NW,309,0.0,0.0,89,0.00,,,0.00,Wunderground v.1.15,2013-03-29 12:47:00,
2013-03-29 08:51:00,30.6,27.7,30.34,NW,309,0.0,0.0,89,0.00,,,0.00,Wunderground v.1.15,2013-03-29 12:51:00,
2013-03-29 08:52:00,30.8,27.9,30.34,NW,309,0.0,0.0,89,0.00,,,0.00,Wunderground v.1.15,2013-03-29 12:52:00,
2013-03-29 08:55:00,30.9,28.0,30.34,NW,309,0.0,0.0,89,0.00,,,0.00,Wunderground v.1.15,2013-03-29 12:55:00,
2013-03-29 08:57:00,30.9,28.0,30.34,NW,309,0.0,0.0,89,0.00,,,0.00,Wunderground v.1.15,2013-03-29 12:57:00,
2013-03-29 09:00:00,31.2,28.3,30.33,NW,309,0.0,0.0,89,0.00,,,0.00,Wunderground v.1.15,2013-03-29 13:00:00,
2013-03-29 09:01:00,31.2,28.3,30.33,NW,309,0.0,0.0,89,0.00,,,0.00,Wunderground v.1.15,2013-03-29 13:01:00,
2013-03-29 09:04:00,31.4,28.5,30.33,NW,309,0.0,0.0,89,0.00,,,0.00,Wunderground v.1.15,2013-03-29 13:04:00,
2013-03-29 09:07:00,31.7,28.8,30.33,NW,309,0.0,0.0,89,0.00,,,0.00,Wunderground v.1.15,2013-03-29 13:07:00,
2013-03-29 09:08:00,31.7,28.8,30.33,NW,309,0.0,0.0,89,0.00,,,0.00,Wunderground v.1.15,2013-03-29 13:08:00,
2013-03-29 09:10:00,31.8,28.9,30.33,NW,309,0.0,0.0,89,0.00,,,0.00,Wunderground v.1.15,2013-03-29 13:10:00,
2013-03-29 09:12:00,32.0,29.1,30.33,NW,309,0.0,0.0,89,0.00,,,0.00,Wunderground v.1.15,2013-03-29 13:12:00,
2013-03-29 09:13:00,32.0,29.1,30.33,NW,309,0.0,0.0,89,0.00,,,0.00,Wunderground v.1.15,2013-03-29 13:13:00,
2013-03-29 09:16:00,32.1,29.2,30.34,NW,309,0.0,0.0,89,0.00,,,0.00,Wunderground v.1.15,2013-03-29 13:16:00,
2013-03-29 09:18:00,32.3,29.4,30.34,NW,309,0.0,0.0,89,0.00,,,0.00,Wunderground v.1.15,2013-03-29 13:18:00,
2013-03-29 09:21:00,32.4,29.5,30.34,NW,309,0.0,0.0,89,0.00,,,0.00,Wunderground v.1.15,2013-03-29 13:21:00,
2013-03-29 09:22:00,32.6,29.7,30.34,NW,309,0.0,0.0,89,0.00,,,0.00,Wunderground v.1.15,2013-03-29 13:22:00,
2013-03-29 09:25:00,32.9,30.3,30.34,NW,309,0.0,0.0,90,0.00,,,0.00,Wunderground v.1.15,2013-03-29 13:25:00,
2013-03-29 09:26:00,33.0,30.1,30.34,NW,309,0.0,0.0,89,0.00,,,0.00,Wunderground v.1.15,2013-03-29 13:26:00,
2013-03-29 09:28:00,33.3,30.4,30.34,NW,309,0.0,0.0,89,0.00,,,0.00,Wunderground v.1.15,2013-03-29 13:28:00,
2013-03-29 09:30:00,33.4,30.5,30.34,NW,313,0.0,0.0,89,0.00,,,0.00,Wunderground v.1.15,2013-03-29 13:30:00,
2013-03-29 09:32:00,33.7,30.8,30.34,NNW,333,0.0,0.0,89,0.00,,,0.00,Wunderground v.1.15,2013-03-29 13:32:00,
2013-03-29 09:33:00,33.9,31.0,30.34,North,349,0.0,0.0,89,0.00,,,0.00,Wunderground v.1.15,2013-03-29 13:33:00,
2013-03-29 09:34:00,34.0,31.1,30.34,North,349,0.0,0.0,89,0.00,,,0.00,Wunderground v.1.15,2013-03-29 13:34:00,
2013-03-29 09:36:00,34.2,31.0,30.34,North,349,0.0,0.0,88,0.00,,,0.00,Wunderground v.1.15,2013-03-29 13:36:00,
2013-03-29 09:38:00,34.5,31.3,30.34,North,349,0.0,0.0,88,0.00,,,0.00,Wunderground v.1.15,2013-03-29 13:38:00,
2013-03-29 09:39:00,34.6,31.4,30.34,North,353,0.0,2.0,88,0.00,,,0.00,Wunderground v.1.15,2013-03-29 13:39:00,
2013-03-29 09:41:00,34.8,31.3,30.34,North,8,0.0,2.0,87,0.00,,,0.00,Wunderground v.1.15,2013-03-29 13:41:00,
2013-03-29 09:42:00,34.8,31.3,30.34,North,11,1.0,2.0,87,0.00,,,0.00,Wunderground v.1.15,2013-03-29 13:42:00,
2013-03-29 09:44:00,34.9,31.4,30.34,NNE,14,1.0,2.0,87,0.00,,,0.00,Wunderground v.1.15,2013-03-29 13:44:00,
2013-03-29 09:45:00,35.1,31.3,30.34,North,10,1.0,3.0,86,0.00,,,0.00,Wunderground v.1.15,2013-03-29 13:45:00,
2013-03-29 09:46:00,35.2,31.4,30.34,North,6,1.0,3.0,86,0.00,,,0.00,Wunderground v.1.15,2013-03-29 13:46:00,
2013-03-29 09:52:00,35.8,31.4,30.34,NE,55,2.0,2.0,84,0.00,,,0.00,Wunderground v.1.15,2013-03-29 13:52:00,
2013-03-29 09:56:00,36.3,31.6,30.34,NE,56,1.0,2.0,83,0.00,,,0.00,Wunderground v.1.15,2013-03-29 13:56:00,
2013-03-29 09:57:00,36.4,31.4,30.34,NE,56,1.0,2.0,82,0.00,,,0.00,Wunderground v.1.15,2013-03-29 13:57:00,
2013-03-29 09:58:00,36.4,31.4,30.34,NE,56,1.0,2.0,82,0.00,,,0.00,Wunderground v.1.15,2013-03-29 13:58:00,
2013-03-29 09:59:00,36.5,31.5,30.34,NE,56,1.0,2.0,82,0.00,,,0.00,Wunderground v.1.15,2013-03-29 13:59:00,
2013-03-29 10:02:00,37.0,31.7,30.34,NE,47,0.0,3.0,81,0.00,,,0.00,Wunderground v.1.15,2013-03-29 14:02:00,
2013-03-29 10:03:00,37.1,31.5,30.34,NE,48,0.0,3.0,80,0.00,,,0.00,Wunderground v.1.15,2013-03-29 14:03:00,
2013-03-29 10:05:00,37.4,31.8,30.34,NE,48,0.0,3.0,80,0.00,,,0.00,Wunderground v.1.15,2013-03-29 14:05:00,
2013-03-29 10:07:00,37.7,31.8,30.34,North,11,0.0,3.0,79,0.00,,,0.00,Wunderground v.1.15,2013-03-29 14:07:00,
2013-03-29 10:12:00,38.4,32.1,30.34,North,11,0.0,0.0,78,0.00,,,0.00,Wunderground v.1.15,2013-03-29 14:12:00,
2013-03-29 10:13:00,38.5,31.9,30.34,North,11,0.0,0.0,77,0.00,,,0.00,Wunderground v.1.15,2013-03-29 14:13:00,
2013-03-29 10:15:00,38.8,31.9,30.34,NNE,16,0.0,0.0,76,0.00,,,0.00,Wunderground v.1.15,2013-03-29 14:15:00,
2013-03-29 10:18:00,39.4,32.1,30.34,NNE,16,0.0,0.0,75,0.00,,,0.00,Wunderground v.1.15,2013-03-29 14:18:00,
2013-03-29 10:19:00,39.7,32.4,30.34,NNE,16,0.0,0.0,75,0.00,,,0.00,Wunderground v.1.15,2013-03-29 14:19:00,
2013-03-29 10:22:00,40.1,32.5,30.34,NNE,16,0.0,0.0,74,0.00,,,0.00,Wunderground v.1.15,2013-03-29 14:22:00,
2013-03-29 10:27:00,41.4,33.4,30.34,East,95,0.0,2.0,73,0.00,,,0.00,Wunderground v.1.15,2013-03-29 14:27:00,
2013-03-29 10:29:00,41.7,33.0,30.34,East,97,1.0,2.0,71,0.00,,,0.00,Wunderground v.1.15,2013-03-29 14:29:00,
2013-03-29 10:30:00,42.0,33.3,30.34,ESE,104,1.0,3.0,71,0.00,,,0.00,Wunderground v.1.15,2013-03-29 14:30:00,
2013-03-29 10:31:00,42.1,33.0,30.34,ESE,106,1.0,3.0,70,0.00,,,0.00,Wunderground v.1.15,2013-03-29 14:31:00,
2013-03-29 10:35:00,42.6,32.0,30.34,ESE,109,2.0,3.0,66,0.00,,,0.00,Wunderground v.1.15,2013-03-29 14:35:00,
2013-03-29 10:37:00,42.8,32.2,30.34,ESE,109,2.0,3.0,66,0.00,,,0.00,Wunderground v.1.15,2013-03-29 14:37:00,
2013-03-29 10:38:00,43.0,32.4,30.34,ESE,109,2.0,3.0,66,0.00,,,0.00,Wunderground v.1.15,2013-03-29 14:38:00,
2013-03-29 10:39:00,43.1,32.1,30.34,ESE,109,2.0,3.0,65,0.00,,,0.00,Wunderground v.1.15,2013-03-29 14:39:00,
2013-03-29 10:43:00,43.7,32.3,30.34,ESE,109,1.0,2.0,64,0.00,,,0.00,Wunderground v.1.15,2013-03-29 14:43:00,
2013-03-29 10:44:00,43.8,32.4,30.34,ESE,109,1.0,2.0,64,0.00,,,0.00,Wunderground v.1.15,2013-03-29 14:44:00,
2013-03-29 10:47:00,44.1,31.9,30.33,ESE,109,1.0,2.0,62,0.00,,,0.00,Wunderground v.1.15,2013-03-29 14:47:00,
2013-03-29 10:48:00,44.3,31.7,30.33,ESE,109,1.0,2.0,61,0.00,,,0.00,Wunderground v.1.15,2013-03-29 14:48:00,
2013-03-29 10:49:00,44.3,31.7,30.33,ESE,109,0.0,2.0,61,0.00,,,0.00,Wunderground v.1.15,2013-03-29 14:49:00,
2013-03-29 10:51:00,44.6,32.0,30.33,ESE,109,0.0,0.0,61,0.00,,,0.00,Wunderground v.1.15,2013-03-29 14:51:00,
2013-03-29 10:55:00,44.8,31.3,30.33,ESE,109,0.0,0.0,59,0.00,,,0.00,Wunderground v.1.15,2013-03-29 14:55:00,
2013-03-29 10:56:00,45.0,31.1,30.33,ESE,107,0.0,0.0,58,0.00,,,0.00,Wunderground v.1.15,2013-03-29 14:56:00,
2013-03-29 10:58:00,45.0,30.7,30.33,ESE,109,0.0,0.0,57,0.00,,,0.00,Wunderground v.1.15,2013-03-29 14:58:00,
2013-03-29 11:01:00,45.3,31.0,30.33,ESE,107,0.0,0.0,57,0.00,,,0.00,Wunderground v.1.15,2013-03-29 15:01:00,
2013-03-29 11:02:00,45.3,30.5,30.33,ESE,109,0.0,0.0,56,0.00,,,0.00,Wunderground v.1.15,2013-03-29 15:02:00,
2013-03-29 11:05:00,45.7,30.9,30.33,ENE,76,0.0,2.0,56,0.00,,,0.00,Wunderground v.1.15,2013-03-29 15:05:00,
2013-03-29 11:07:00,45.9,31.5,30.33,ENE,76,0.0,2.0,57,0.00,,,0.00,Wunderground v.1.15,2013-03-29 15:07:00,
2013-03-29 11:08:00,46.2,31.8,30.33,ENE,76,0.0,2.0,57,0.00,,,0.00,Wunderground v.1.15,2013-03-29 15:08:00,
2013-03-29 11:12:00,46.5,32.1,30.33,East,82,0.0,1.0,57,0.00,,,0.00,Wunderground v.1.15,2013-03-29 15:12:00,
2013-03-29 11:13:00,46.6,31.7,30.33,East,82,0.0,1.0,56,0.00,,,0.00,Wunderground v.1.15,2013-03-29 15:13:00,
2013-03-29 11:15:00,46.7,31.8,30.33,East,82,0.0,1.0,56,0.00,,,0.00,Wunderground v.1.15,2013-03-29 15:15:00,
2013-03-29 11:18:00,47.0,31.7,30.33,East,85,0.0,2.0,55,0.00,,,0.00,Wunderground v.1.15,2013-03-29 15:18:00,
2013-03-29 11:19:00,47.0,31.7,30.33,East,88,0.0,2.0,55,0.00,,,0.00,Wunderground v.1.15,2013-03-29 15:19:00,
2013-03-29 11:21:00,47.2,31.8,30.33,East,89,0.0,1.0,55,0.00,,,0.00,Wunderground v.1.15,2013-03-29 15:21:00,
2013-03-29 11:22:00,47.2,31.8,30.33,East,89,0.0,1.0,55,0.00,,,0.00,Wunderground v.1.15,2013-03-29 15:22:00,
2013-03-29 11:24:00,47.3,31.5,30.33,East,89,0.0,1.0,54,0.00,,,0.00,Wunderground v.1.15,2013-03-29 15:24:00,
2013-03-29 11:29:00,47.6,30.8,30.33,NE,51,0.0,1.0,52,0.00,,,0.00,Wunderground v.1.15,2013-03-29 15:29:00,
2013-03-29 11:30:00,47.6,30.8,30.33,NE,51,0.0,0.0,52,0.00,,,0.00,Wunderground v.1.15,2013-03-29 15:30:00,
2013-03-29 11:31:00,47.8,31.0,30.33,NE,51,0.0,0.0,52,0.00,,,0.00,Wunderground v.1.15,2013-03-29 15:31:00,
2013-03-29 11:33:00,48.1,31.8,30.33,NE,51,0.0,0.0,53,0.00,,,0.00,Wunderground v.1.15,2013-03-29 15:33:00,
2013-03-29 11:38:00,48.5,30.2,30.33,NE,51,0.0,0.0,49,0.00,,,0.00,Wunderground v.1.15,2013-03-29 15:38:00,
2013-03-29 11:41:00,48.8,30.5,30.33,NE,51,0.0,0.0,49,0.00,,,0.00,Wunderground v.1.15,2013-03-29 15:41:00,
2013-03-29 11:42:00,49.0,30.7,30.33,NE,51,0.0,0.0,49,0.00,,,0.00,Wunderground v.1.15,2013-03-29 15:42:00,
2013-03-29 11:44:00,49.3,31.4,30.33,ESE,103,0.0,1.0,50,0.00,,,0.00,Wunderground v.1.15,2013-03-29 15:44:00,
2013-03-29 11:50:00,49.9,29.9,30.32,NE,34,1.0,2.0,46,0.00,,,0.00,Wunderground v.1.15,2013-03-29 15:50:00,
2013-03-29 11:51:00,50.0,30.5,30.32,NE,54,1.0,2.0,47,0.00,,,0.00,Wunderground v.1.15,2013-03-29 15:51:00,
2013-03-29 11:52:00,50.0,30.0,30.32,ENE,61,1.0,2.0,46,0.00,,,0.00,Wunderground v.1.15,2013-03-29 15:52:00,
2013-03-29 11:55:00,50.1,29.6,30.32,East,89,1.0,2.0,45,0.00,,,0.00,Wunderground v.1.15,2013-03-29 15:55:00,
2013-03-29 11:57:00,50.3,28.6,30.32,SE,126,1.0,2.0,43,0.00,,,0.00,Wunderground v.1.15,2013-03-29 15:57:00,
2013-03-29 11:58:00,50.3,29.2,30.32,SE,126,1.0,2.0,44,0.00,,,0.00,Wunderground v.1.15,2013-03-29 15:58:00,
2013-03-29 12:01:00,50.9,30.3,30.32,ESE,110,1.0,4.0,45,0.00,,,0.00,Wunderground v.1.15,2013-03-29 16:01:00,
2013-03-29 12:02:00,50.9,29.7,30.32,ESE,110,1.0,4.0,44,0.00,,,0.00,Wunderground v.1.15,2013-03-29 16:02:00,
2013-03-29 12:04:00,50.9,29.2,30.32,South,186,1.0,4.0,43,0.00,,,0.00,Wunderground v.1.15,2013-03-29 16:04:00,
2013-03-29 12:06:00,51.2,30.0,30.32,West,278,1.0,4.0,44,0.00,,,0.00,Wunderground v.1.15,2013-03-29 16:06:00,
2013-03-29 12:08:00,51.5,30.3,30.32,East,79,1.0,4.0,44,0.00,,,0.00,Wunderground v.1.15,2013-03-29 16:08:00,
2013-03-29 12:09:00,51.6,29.8,30.32,East,86,1.0,5.0,43,0.00,,,0.00,Wunderground v.1.15,2013-03-29 16:09:00,
2013-03-29 12:14:00,51.6,29.2,30.32,East,88,1.0,4.0,42,0.00,,,0.00,Wunderground v.1.15,2013-03-29 16:14:00,
2013-03-29 12:15:00,51.6,28.6,30.32,East,88,1.0,4.0,41,0.00,,,0.00,Wunderground v.1.15,2013-03-29 16:15:00,
2013-03-29 12:17:00,51.8,28.2,30.32,ENE,75,1.0,4.0,40,0.00,,,0.00,Wunderground v.1.15,2013-03-29 16:17:00,
2013-03-29 12:20:00,52.2,29.8,30.32,ENE,66,1.0,1.0,42,0.00,,,0.00,Wunderground v.1.15,2013-03-29 16:20:00,
2013-03-29 12:21:00,52.2,29.8,30.32,ENE,65,1.0,1.0,42,0.00,,,0.00,Wunderground v.1.15,2013-03-29 16:21:00,
2013-03-29 12:23:00,52.5,30.0,30.32,East,82,1.0,2.0,42,0.00,,,0.00,Wunderground v.1.15,2013-03-29 16:23:00,
2013-03-29 12:24:00,52.7,31.4,30.32,East,82,1.0,2.0,44,0.00,,,0.00,Wunderground v.1.15,2013-03-29 16:24:00,
2013-03-29 12:26:00,53.0,29.3,30.32,East,86,1.0,2.0,40,0.00,,,0.00,Wunderground v.1.15,2013-03-29 16:26:00,
2013-03-29 12:27:00,53.1,30.0,30.32,East,85,1.0,2.0,41,0.00,,,0.00,Wunderground v.1.15,2013-03-29 16:27:00,
2013-03-29 12:29:00,53.3,28.9,30.32,NNW,344,1.0,4.0,39,0.00,,,0.00,Wunderground v.1.15,2013-03-29 16:29:00,
2013-03-29 12:31:00,53.3,29.6,30.31,NE,44,1.0,3.0,40,0.00,,,0.00,Wunderground v.1.15,2013-03-29 16:31:00,
2013-03-29 12:32:00,53.3,28.9,30.31,NE,44,1.0,3.0,39,0.00,,,0.00,Wunderground v.1.15,2013-03-29 16:32:00,
2013-03-29 12:37:00,53.7,29.3,30.31,East,80,1.0,4.0,39,0.00,,,0.00,Wunderground v.1.15,2013-03-29 16:37:00,
2013-03-29 12:38:00,53.8,28.8,30.31,East,80,1.0,4.0,38,0.00,,,0.00,Wunderground v.1.15,2013-03-29 16:38:00,
2013-03-29 12:43:00,53.8,28.1,30.31,South,191,1.0,3.0,37,0.00,,,0.00,Wunderground v.1.15,2013-03-29 16:43:00,
2013-03-29 12:44:00,54.0,29.6,30.31,SSE,150,1.0,3.0,39,0.00,,,0.00,Wunderground v.1.15,2013-03-29 16:44:00,
2013-03-29 12:45:00,53.8,28.1,30.30,SSE,148,1.0,3.0,37,0.00,,,0.00,Wunderground v.1.15,2013-03-29 16:45:00,
2013-03-29 12:49:00,53.8,28.1,30.30,East,89,1.0,3.0,37,0.00,,,0.00,Wunderground v.1.15,2013-03-29 16:49:00,
2013-03-29 12:51:00,53.8,28.1,30.30,SSE,162,1.0,5.0,37,0.00,,,0.00,Wunderground v.1.15,2013-03-29 16:51:00,
2013-03-29 12:53:00,53.8,29.4,30.30,SSE,162,2.0,5.0,39,0.00,,,0.00,Wunderground v.1.15,2013-03-29 16:53:00,
2013-03-29 12:56:00,54.1,29.7,30.30,South,178,1.0,5.0,39,0.00,,,0.00,Wunderground v.1.15,2013-03-29 16:56:00,
2013-03-29 13:01:00,54.6,28.8,30.30,ESE,102,1.0,2.0,37,0.00,,,0.00,Wunderground v.1.15,2013-03-29 17:01:00,
2013-03-29 13:02:00,54.7,28.9,30.30,ESE,110,1.0,3.0,37,0.00,,,0.00,Wunderground v.1.15,2013-03-29 17:02:00,
2013-03-29 13:05:00,54.7,28.9,30.30,ESE,119,1.0,3.0,37,0.00,,,0.00,Wunderground v.1.15,2013-03-29 17:05:00,
2013-03-29 13:07:00,54.9,29.7,30.30,ESE,119,1.0,3.0,38,0.00,,,0.00,Wunderground v.1.15,2013-03-29 17:07:00,
2013-03-29 13:12:00,55.2,28.0,30.30,East,88,1.0,3.0,35,0.00,,,0.00,Wunderground v.1.15,2013-03-29 17:12:00,
2013-03-29 13:14:00,55.2,28.7,30.30,ENE,73,0.0,3.0,36,0.00,,,0.00,Wunderground v.1.15,2013-03-29 17:14:00,
2013-03-29 13:17:00,55.3,28.8,30.29,North,0,1.0,5.0,36,0.00,,,0.00,Wunderground v.1.15,2013-03-29 17:17:00,
2013-03-29 13:20:00,55.3,28.1,30.29,North,354,2.0,2.0,35,0.00,,,0.00,Wunderground v.1.15,2013-03-29 17:20:00,
2013-03-29 13:21:00,55.3,28.8,30.29,North,354,2.0,2.0,36,0.00,,,0.00,Wunderground v.1.15,2013-03-29 17:21:00,
2013-03-29 13:22:00,55.5,29.6,30.29,NNE,17,2.0,2.0,37,0.00,,,0.00,Wunderground v.1.15,2013-03-29 17:22:00,
2013-03-29 13:25:00,55.6,29.0,30.29,North,8,2.0,2.0,36,0.00,,,0.00,Wunderground v.1.15,2013-03-29 17:25:00,
2013-03-29 13:26:00,55.6,29.0,30.29,North,8,1.0,2.0,36,0.00,,,0.00,Wunderground v.1.15,2013-03-29 17:26:00,
2013-03-29 13:27:00,55.8,29.2,30.29,NE,48,1.0,2.0,36,0.00,,,0.00,Wunderground v.1.15,2013-03-29 17:27:00,
2013-03-29 13:30:00,56.1,30.2,30.28,ESE,109,0.0,0.0,37,0.00,,,0.00,Wunderground v.1.15,2013-03-29 17:30:00,
2013-03-29 13:33:00,56.1,28.8,30.28,SE,130,1.0,5.0,35,0.00,,,0.00,Wunderground v.1.15,2013-03-29 17:33:00,
2013-03-29 13:35:00,55.8,29.2,30.28,ENE,68,2.0,5.0,36,0.00,,,0.00,Wunderground v.1.15,2013-03-29 17:35:00,
2013-03-29 13:37:00,55.6,28.4,30.28,ENE,72,2.0,5.0,35,0.00,,,0.00,Wunderground v.1.15,2013-03-29 17:37:00,
2013-03-29 13:38:00,55.5,28.3,30.28,East,100,2.0,5.0,35,0.00,,,0.00,Wunderground v.1.15,2013-03-29 17:38:00,
2013-03-29 13:39:00,55.3,28.1,30.28,East,97,2.0,5.0,35,0.00,,,0.00,Wunderground v.1.15,2013-03-29 17:39:00,
2013-03-29 13:42:00,55.0,28.5,30.28,East,86,3.0,6.0,36,0.00,,,0.00,Wunderground v.1.15,2013-03-29 17:42:00,
2013-03-29 13:44:00,55.0,29.2,30.28,North,7,3.0,6.0,37,0.00,,,0.00,Wunderground v.1.15,2013-03-29 17:44:00,
2013-03-29 13:47:00,55.2,28.7,30.28,North,10,3.0,6.0,36,0.00,,,0.00,Wunderground v.1.15,2013-03-29 17:47:00,
2013-03-29 13:48:00,55.5,29.0,30.28,ENE,65,3.0,6.0,36,0.00,,,0.00,Wunderground v.1.15,2013-03-29 17:48:00,
2013-03-29 13:51:00,55.5,28.3,30.28,ESE,117,2.0,3.0,35,0.00,,,0.00,Wunderground v.1.15,2013-03-29 17:51:00,
2013-03-29 13:53:00,55.5,29.0,30.28,East,99,1.0,4.0,36,0.00,,,0.00,Wunderground v.1.15,2013-03-29 17:53:00,
2013-03-29 13:54:00,55.3,28.1,30.28,ESE,109,2.0,5.0,35,0.00,,,0.00,Wunderground v.1.15,2013-03-29 17:54:00,
2013-03-29 13:55:00,55.3,28.8,30.28,ESE,102,2.0,5.0,36,0.00,,,0.00,Wunderground v.1.15,2013-03-29 17:55:00,
2013-03-29 14:00:00,55.6,27.6,30.27,South,181,3.0,3.0,34,0.00,,,0.00,Wunderground v.1.15,2013-03-29 18:00:00,
2013-03-29 14:01:00,55.8,27.8,30.27,South,189,2.0,3.0,34,0.00,,,0.00,Wunderground v.1.15,2013-03-29 18:01:00,
2013-03-29 14:04:00,55.9,27.9,30.27,West,261,2.0,3.0,34,0.00,,,0.00,Wunderground v.1.15,2013-03-29 18:04:00,
2013-03-29 14:05:00,56.1,27.4,30.27,WSW,258,2.0,3.0,33,0.00,,,0.00,Wunderground v.1.15,2013-03-29 18:05:00,
2013-03-29 14:08:00,56.5,28.4,30.27,SSW,193,1.0,5.0,34,0.00,,,0.00,Wunderground v.1.15,2013-03-29 18:08:00,
2013-03-29 14:10:00,56.8,31.4,30.27,NNE,20,3.0,6.0,38,0.00,,,0.00,Wunderground v.1.15,2013-03-29 18:10:00,
2013-03-29 14:12:00,57.0,28.1,30.27,North,349,3.0,6.0,33,0.00,,,0.00,Wunderground v.1.15,2013-03-29 18:12:00,
2013-03-29 14:13:00,57.0,28.1,30.27,North,0,4.0,6.0,33,0.00,,,0.00,Wunderground v.1.15,2013-03-29 18:13:00,
2013-03-29 14:17:00,57.1,29.0,30.27,NE,56,3.0,6.0,34,0.00,,,0.00,Wunderground v.1.15,2013-03-29 18:17:00,
2013-03-29 14:18:00,57.1,29.0,30.27,NE,56,3.0,6.0,34,0.00,,,0.00,Wunderground v.1.15,2013-03-29 18:18:00,
2013-03-29 14:19:00,57.2,30.5,30.27,ENE,73,3.0,6.0,36,0.00,,,0.00,Wunderground v.1.15,2013-03-29 18:19:00,
2013-03-29 14:21:00,57.4,28.5,30.27,ENE,65,2.0,3.0,33,0.00,,,0.00,Wunderground v.1.15,2013-03-29 18:21:00,
2013-03-29 14:25:00,57.5,28.6,30.27,East,85,1.0,4.0,33,0.00,,,0.00,Wunderground v.1.15,2013-03-29 18:25:00,
2013-03-29 14:26:00,57.4,28.5,30.27,East,89,2.0,4.0,33,0.00,,,0.00,Wunderground v.1.15,2013-03-29 18:26:00,
2013-03-29 14:27:00,57.1,28.2,30.27,East,90,2.0,4.0,33,0.00,,,0.00,Wunderground v.1.15,2013-03-29 18:27:00,
2013-03-29 14:31:00,56.5,27.7,30.26,ESE,112,3.0,6.0,33,0.00,,,0.00,Wunderground v.1.15,2013-03-29 18:31:00,
2013-03-29 14:33:00,56.5,29.1,30.26,North,10,3.0,6.0,35,0.00,,,0.00,Wunderground v.1.15,2013-03-29 18:33:00,
2013-03-29 14:34:00,56.5,28.4,30.26,NNE,21,3.0,6.0,34,0.00,,,0.00,Wunderground v.1.15,2013-03-29 18:34:00,
2013-03-29 14:38:00,56.7,28.6,30.26,East,95,3.0,6.0,34,0.00,,,0.00,Wunderground v.1.15,2013-03-29 18:38:00,
2013-03-29 14:39:00,56.7,30.0,30.26,East,95,3.0,6.0,36,0.00,,,0.00,Wunderground v.1.15,2013-03-29 18:39:00,
2013-03-29 14:41:00,56.7,29.3,30.26,East,93,3.0,3.0,35,0.00,,,0.00,Wunderground v.1.15,2013-03-29 18:41:00,
2013-03-29 14:42:00,56.8,29.4,30.26,East,85,3.0,3.0,35,0.00,,,0.00,Wunderground v.1.15,2013-03-29 18:42:00,
2013-03-29 14:45:00,56.8,28.7,30.25,East,89,2.0,5.0,34,0.00,,,0.00,Wunderground v.1.15,2013-03-29 18:45:00,
2013-03-29 14:46:00,56.8,28.7,30.25,East,92,2.0,5.0,34,0.00,,,0.00,Wunderground v.1.15,2013-03-29 18:46:00,
2013-03-29 14:51:00,56.7,27.9,30.25,ESE,112,2.0,2.0,33,0.00,,,0.00,Wunderground v.1.15,2013-03-29 18:51:00,
2013-03-29 14:52:00,56.8,28.7,30.25,ESE,112,2.0,2.0,34,0.00,,,0.00,Wunderground v.1.15,2013-03-29 18:52:00,
2013-03-29 14:53:00,57.0,28.1,30.25,ESE,112,2.0,2.0,33,0.00,,,0.00,Wunderground v.1.15,2013-03-29 18:53:00,
2013-03-29 14:58:00,57.5,28.6,30.25,ESE,114,2.0,5.0,33,0.00,,,0.00,Wunderground v.1.15,2013-03-29 18:58:00,
2013-03-29 14:59:00,57.7,29.5,30.25,East,95,2.0,6.0,34,0.00,,,0.00,Wunderground v.1.15,2013-03-29 18:59:00,
2013-03-29 15:00:00,57.7,28.8,30.25,East,83,2.0,6.0,33,0.00,,,0.00,Wunderground v.1.15,2013-03-29 19:00:00,
2013-03-29 15:05:00,57.4,27.7,30.25,ESE,121,4.0,7.0,32,0.00,,,0.00,Wunderground v.1.15,2013-03-29 19:05:00,
2013-03-29 15:06:00,57.4,27.7,30.25,ESE,121,4.0,7.0,32,0.00,,,0.00,Wunderground v.1.15,2013-03-29 19:06:00,
2013-03-29 15:07:00,57.4,27.7,30.25,ESE,121,3.0,7.0,32,0.00,,,0.00,Wunderground v.1.15,2013-03-29 19:07:00,
2013-03-29 15:10:00,57.8,29.6,30.25,SE,127,2.0,3.0,34,0.00,,,0.00,Wunderground v.1.15,2013-03-29 19:10:00,
2013-03-29 15:12:00,58.0,29.0,30.25,SE,124,2.0,3.0,33,0.00,,,0.00,Wunderground v.1.15,2013-03-29 19:12:00,
2013-03-29 15:13:00,58.0,28.3,30.25,SE,124,1.0,3.0,32,0.00,,,0.00,Wunderground v.1.15,2013-03-29 19:13:00,
2013-03-29 15:15:00,58.3,28.5,30.24,SE,144,1.0,3.0,32,0.00,,,0.00,Wunderground v.1.15,2013-03-29 19:15:00,
2013-03-29 15:17:00,58.1,27.6,30.24,ESE,123,1.0,5.0,31,0.00,,,0.00,Wunderground v.1.15,2013-03-29 19:17:00,
2013-03-29 15:18:00,58.1,28.4,30.24,ESE,123,1.0,5.0,32,0.00,,,0.00,Wunderground v.1.15,2013-03-29 19:18:00,
2013-03-29 15:23:00,58.1,29.1,30.24,SE,127,2.0,3.0,33,0.00,,,0.00,Wunderground v.1.15,2013-03-29 19:23:00,
2013-03-29 15:25:00,58.0,28.3,30.24,SE,134,2.0,3.0,32,0.00,,,0.00,Wunderground v.1.15,2013-03-29 19:25:00,
2013-03-29 15:26:00,58.1,28.4,30.24,SE,134,2.0,3.0,32,0.00,,,0.00,Wunderground v.1.15,2013-03-29 19:26:00,
2013-03-29 15:29:00,58.1,29.1,30.24,NW,305,2.0,3.0,33,0.00,,,0.00,Wunderground v.1.15,2013-03-29 19:29:00,
2013-03-29 15:30:00,58.1,29.1,30.24,NW,312,2.0,2.0,33,0.00,,,0.00,Wunderground v.1.15,2013-03-29 19:30:00,
2013-03-29 15:34:00,58.1,29.8,30.24,WNW,301,2.0,6.0,34,0.00,,,0.00,Wunderground v.1.15,2013-03-29 19:34:00,
2013-03-29 15:36:00,58.3,29.3,30.24,WSW,253,2.0,6.0,33,0.00,,,0.00,Wunderground v.1.15,2013-03-29 19:36:00,
2013-03-29 15:37:00,58.3,29.3,30.24,WSW,256,3.0,6.0,33,0.00,,,0.00,Wunderground v.1.15,2013-03-29 19:37:00,
2013-03-29 15:40:00,58.1,29.1,30.24,WSW,253,3.0,3.0,33,0.00,,,0.00,Wunderground v.1.15,2013-03-29 19:40:00,
2013-03-29 15:43:00,58.1,29.8,30.24,SW,236,3.0,5.0,34,0.00,,,0.00,Wunderground v.1.15,2013-03-29 19:43:00,
2013-03-29 15:45:00,58.1,30.6,30.23,WSW,256,3.0,5.0,35,0.00,,,0.00,Wunderground v.1.15,2013-03-29 19:45:00,
2013-03-29 15:48:00,58.3,31.4,30.23,West,260,3.0,5.0,36,0.00,,,0.00,Wunderground v.1.15,2013-03-29 19:48:00,
2013-03-29 15:51:00,58.5,30.9,30.23,West,268,2.0,3.0,35,0.00,,,0.00,Wunderground v.1.15,2013-03-29 19:51:00,
2013-03-29 15:52:00,58.5,30.9,30.23,West,268,2.0,3.0,35,0.00,,,0.00,Wunderground v.1.15,2013-03-29 19:52:00,
2013-03-29 15:56:00,58.5,30.2,30.23,WNW,291,1.0,3.0,34,0.00,,,0.00,Wunderground v.1.15,2013-03-29 19:56:00,
2013-03-29 15:57:00,58.5,30.9,30.23,WNW,294,1.0,3.0,35,0.00,,,0.00,Wunderground v.1.15,2013-03-29 19:57:00,
2013-03-29 15:59:00,58.5,30.9,30.23,WNW,296,1.0,3.0,35,0.00,,,0.00,Wunderground v.1.15,2013-03-29 19:59:00,
2013-03-29 16:00:00,58.5,32.3,30.22,WNW,298,1.0,1.0,37,0.00,,,0.00,Wunderground v.1.15,2013-03-29 20:00:00,
2013-03-29 16:04:00,58.3,30.0,30.22,WNW,299,0.0,1.0,34,0.00,,,0.00,Wunderground v.1.15,2013-03-29 20:04:00,
2013-03-29 16:06:00,58.1,29.8,30.22,WNW,299,0.0,1.0,34,0.00,,,0.00,Wunderground v.1.15,2013-03-29 20:06:00,
2013-03-29 16:07:00,58.0,29.8,30.22,WNW,299,0.0,1.0,34,0.00,,,0.00,Wunderground v.1.15,2013-03-29 20:07:00,
2013-03-29 16:09:00,58.0,29.8,30.22,WNW,299,0.0,1.0,34,0.00,,,0.00,Wunderground v.1.15,2013-03-29 20:09:00,
2013-03-29 16:10:00,58.0,31.2,30.22,WNW,299,0.0,0.0,36,0.00,,,0.00,Wunderground v.1.15,2013-03-29 20:10:00,
2013-03-29 16:13:00,57.8,30.3,30.22,WNW,299,0.0,0.0,35,0.00,,,0.00,Wunderground v.1.15,2013-03-29 20:13:00,
2013-03-29 16:16:00,57.7,29.5,30.22,North,349,0.0,2.0,34,0.00,,,0.00,Wunderground v.1.15,2013-03-29 20:16:00,
2013-03-29 16:18:00,57.7,29.5,30.22,North,349,0.0,2.0,34,0.00,,,0.00,Wunderground v.1.15,2013-03-29 20:18:00,
2013-03-29 16:20:00,57.5,30.7,30.22,North,349,0.0,0.0,36,0.00,,,0.00,Wunderground v.1.15,2013-03-29 20:20:00,
2013-03-29 16:21:00,57.5,30.7,30.22,North,349,0.0,0.0,36,0.00,,,0.00,Wunderground v.1.15,2013-03-29 20:21:00,
2013-03-29 16:24:00,57.4,30.6,30.22,ESE,107,0.0,1.0,36,0.00,,,0.00,Wunderground v.1.15,2013-03-29 20:24:00,
2013-03-29 16:25:00,57.4,30.6,30.22,ESE,107,0.0,1.0,36,0.00,,,0.00,Wunderground v.1.15,2013-03-29 20:25:00,
2013-03-29 16:26:00,57.4,29.9,30.22,ESE,107,0.0,1.0,35,0.00,,,0.00,Wunderground v.1.15,2013-03-29 20:26:00,
2013-03-29 16:27:00,57.4,29.9,30.22,ESE,107,0.0,1.0,35,0.00,,,0.00,Wunderground v.1.15,2013-03-29 20:27:00,
2013-03-29 16:31:00,57.2,29.8,30.22,NE,54,0.0,2.0,35,0.00,,,0.00,Wunderground v.1.15,2013-03-29 20:31:00,
2013-03-29 16:33:00,57.2,29.8,30.22,ENE,76,0.0,2.0,35,0.00,,,0.00,Wunderground v.1.15,2013-03-29 20:33:00,
2013-03-29 16:34:00,57.1,29.7,30.22,ENE,76,1.0,2.0,35,0.00,,,0.00,Wunderground v.1.15,2013-03-29 20:34:00,
2013-03-29 16:37:00,57.0,30.3,30.22,ENE,78,1.0,2.0,36,0.00,,,0.00,Wunderground v.1.15,2013-03-29 20:37:00,
2013-03-29 16:39:00,57.1,31.0,30.22,ENE,78,1.0,2.0,37,0.00,,,0.00,Wunderground v.1.15,2013-03-29 20:39:00,
2013-03-29 16:40:00,57.1,31.0,30.22,ENE,78,1.0,1.0,37,0.00,,,0.00,Wunderground v.1.15,2013-03-29 20:40:00,
2013-03-29 16:42:00,57.1,30.4,30.22,ENE,78,0.0,1.0,36,0.00,,,0.00,Wunderground v.1.15,2013-03-29 20:42:00,
2013-03-29 16:43:00,57.1,30.4,30.22,ENE,78,0.0,1.0,36,0.00,,,0.00,Wunderground v.1.15,2013-03-29 20:43:00,
2013-03-29 16:45:00,57.1,30.4,30.22,ENE,78,0.0,1.0,36,0.00,,,0.00,Wunderground v.1.15,2013-03-29 20:45:00,
2013-03-29 16:46:00,57.1,31.0,30.22,ENE,64,0.0,1.0,37,0.00,,,0.00,Wunderground v.1.15,2013-03-29 20:46:00,
2013-03-29 16:50:00,57.1,30.4,30.22,North,357,0.0,0.0,36,0.00,,,0.00,Wunderground v.1.15,2013-03-29 20:50:00,
2013-03-29 16:52:00,57.2,30.5,30.22,North,357,0.0,0.0,36,0.00,,,0.00,Wunderground v.1.15,2013-03-29 20:52:00,
2013-03-29 16:56:00,57.2,31.1,30.22,North,354,0.0,2.0,37,0.00,,,0.00,Wunderground v.1.15,2013-03-29 20:56:00,
2013-03-29 16:57:00,57.2,31.1,30.22,North,354,0.0,2.0,37,0.00,,,0.00,Wunderground v.1.15,2013-03-29 20:57:00,
2013-03-29 16:58:00,57.2,31.1,30.22,North,354,0.0,2.0,37,0.00,,,0.00,Wunderground v.1.15,2013-03-29 20:58:00,
2013-03-29 16:59:00,57.2,30.5,30.22,North,354,0.0,2.0,36,0.00,,,0.00,Wunderground v.1.15,2013-03-29 20:59:00,
2013-03-29 17:04:00,57.4,31.3,30.21,NNE,27,0.0,0.0,37,0.00,,,0.00,Wunderground v.1.15,2013-03-29 21:04:00,
2013-03-29 17:05:00,57.4,31.3,30.21,NNE,27,0.0,0.0,37,0.00,,,0.00,Wunderground v.1.15,2013-03-29 21:05:00,
2013-03-29 17:07:00,57.2,30.5,30.21,NNE,27,0.0,0.0,36,0.00,,,0.00,Wunderground v.1.15,2013-03-29 21:07:00,
2013-03-29 17:11:00,57.0,31.0,30.21,NNE,27,0.0,0.0,37,0.00,,,0.00,Wunderground v.1.15,2013-03-29 21:11:00,
2013-03-29 17:12:00,57.0,31.0,30.21,NNE,27,0.0,0.0,37,0.00,,,0.00,Wunderground v.1.15,2013-03-29 21:12:00,
2013-03-29 17:13:00,57.0,31.0,30.21,North,0,0.0,0.0,37,0.00,,,0.00,Wunderground v.1.15,2013-03-29 21:13:00,
2013-03-29 17:14:00,57.0,31.6,30.21,North,356,0.0,1.0,38,0.00,,,0.00,Wunderground v.1.15,2013-03-29 21:14:00,
2013-03-29 17:17:00,57.1,31.0,30.21,North,356,0.0,1.0,37,0.00,,,0.00,Wunderground v.1.15,2013-03-29 21:17:00,
2013-03-29 17:19:00,57.1,31.0,30.21,NNW,339,0.0,1.0,37,0.00,,,0.00,Wunderground v.1.15,2013-03-29 21:19:00,
2013-03-29 17:20:00,57.1,31.0,30.21,NNW,339,0.0,0.0,37,0.00,,,0.00,Wunderground v.1.15,2013-03-29 21:20:00,
2013-03-29 17:21:00,57.1,31.0,30.21,NNW,339,0.0,0.0,37,0.00,,,0.00,Wunderground v.1.15,2013-03-29 21:21:00,
2013-03-29 17:24:00,57.1,31.0,30.21,NNW,339,0.0,0.0,37,0.00,,,0.00,Wunderground v.1.15,2013-03-29 21:24:00,
2013-03-29 17:27:00,57.1,30.4,30.21,NNW,339,0.0,0.0,36,0.00,,,0.00,Wunderground v.1.15,2013-03-29 21:27:00,
2013-03-29 17:28:00,57.1,30.4,30.21,NNW,339,0.0,0.0,36,0.00,,,0.00,Wunderground v.1.15,2013-03-29 21:28:00,
2013-03-29 17:30:00,57.1,30.4,30.21,NNW,339,0.0,0.0,36,0.00,,,0.00,Wunderground v.1.15,2013-03-29 21:30:00,
2013-03-29 17:32:00,57.1,30.4,30.21,NNW,339,0.0,0.0,36,0.00,,,0.00,Wunderground v.1.15,2013-03-29 21:32:00,
2013-03-29 17:34:00,57.1,31.0,30.21,NNW,339,0.0,0.0,37,0.00,,,0.00,Wunderground v.1.15,2013-03-29 21:34:00,
2013-03-29 17:35:00,57.1,30.4,30.21,NNW,339,0.0,0.0,36,0.00,,,0.00,Wunderground v.1.15,2013-03-29 21:35:00,
2013-03-29 17:37:00,57.1,30.4,30.21,NNW,339,0.0,0.0,36,0.00,,,0.00,Wunderground v.1.15,2013-03-29 21:37:00,
2013-03-29 17:40:00,57.1,30.4,30.21,NNW,339,0.0,0.0,36,0.00,,,0.00,Wunderground v.1.15,2013-03-29 21:40:00,
2013-03-29 17:42:00,57.1,31.0,30.21,NNW,339,0.0,0.0,37,0.00,,,0.00,Wunderground v.1.15,2013-03-29 21:42:00,
2013-03-29 17:43:00,57.1,31.0,30.21,NNW,339,0.0,0.0,37,0.00,,,0.00,Wunderground v.1.15,2013-03-29 21:43:00,
2013-03-29 17:44:00,57.1,31.0,30.21,NNW,339,0.0,0.0,37,0.00,,,0.00,Wunderground v.1.15,2013-03-29 21:44:00,
2013-03-29 17:46:00,57.1,31.0,30.21,NNW,339,0.0,0.0,37,0.00,,,0.00,Wunderground v.1.15,2013-03-29 21:46:00,
2013-03-29 17:48:00,57.2,31.1,30.21,NNW,339,0.0,0.0,37,0.00,,,0.00,Wunderground v.1.15,2013-03-29 21:48:00,
2013-03-29 17:49:00,57.2,31.1,30.21,NNW,339,0.0,0.0,37,0.00,,,0.00,Wunderground v.1.15,2013-03-29 21:49:00,
2013-03-29 17:52:00,57.4,32.6,30.21,NNW,339,0.0,0.0,39,0.00,,,0.00,Wunderground v.1.15,2013-03-29 21:52:00,
2013-03-29 17:54:00,57.4,32.0,30.21,NNW,339,0.0,0.0,38,0.00,,,0.00,Wunderground v.1.15,2013-03-29 21:54:00,
2013-03-29 17:57:00,57.4,29.2,30.21,NNW,339,0.0,3.0,34,0.00,,,0.00,Wunderground v.1.15,2013-03-29 21:57:00,
2013-03-29 17:58:00,57.2,29.1,30.21,NNW,339,1.0,3.0,34,0.00,,,0.00,Wunderground v.1.15,2013-03-29 21:58:00,
2013-03-29 18:01:00,57.2,29.1,30.21,NNW,339,1.0,1.0,34,0.00,,,0.00,Wunderground v.1.15,2013-03-29 22:01:00,
2013-03-29 18:02:00,57.1,29.7,30.21,NNW,339,1.0,1.0,35,0.00,,,0.00,Wunderground v.1.15,2013-03-29 22:02:00,
2013-03-29 18:03:00,57.1,29.0,30.21,NNW,339,1.0,1.0,34,0.00,,,0.00,Wunderground v.1.15,2013-03-29 22:03:00,
2013-03-29 18:04:00,57.1,29.0,30.21,NNW,339,1.0,1.0,34,0.00,,,0.00,Wunderground v.1.15,2013-03-29 22:04:00,
2013-03-29 18:07:00,57.1,30.4,30.21,NNW,339,0.0,1.0,36,0.00,,,0.00,Wunderground v.1.15,2013-03-29 22:07:00,
2013-03-29 18:10:00,57.1,30.4,30.21,NNW,339,0.0,0.0,36,0.00,,,0.00,Wunderground v.1.15,2013-03-29 22:10:00,
2013-03-29 18:11:00,57.1,29.7,30.21,NNW,339,0.0,0.0,35,0.00,,,0.00,Wunderground v.1.15,2013-03-29 22:11:00,
2013-03-29 18:13:00,57.0,31.0,30.21,NNW,339,0.0,0.0,37,0.00,,,0.00,Wunderground v.1.15,2013-03-29 22:13:00,
2013-03-29 18:16:00,57.0,31.0,30.21,NW,316,0.0,0.0,37,0.00,,,0.00,Wunderground v.1.15,2013-03-29 22:16:00,
2013-03-29 18:17:00,56.8,30.8,30.21,NW,315,0.0,0.0,37,0.00,,,0.00,Wunderground v.1.15,2013-03-29 22:17:00,
2013-03-29 18:19:00,56.8,32.1,30.21,NW,315,0.0,0.0,39,0.00,,,0.00,Wunderground v.1.15,2013-03-29 22:19:00,
2013-03-29 18:20:00,56.8,32.1,30.21,NW,315,0.0,0.0,39,0.00,,,0.00,Wunderground v.1.15,2013-03-29 22:20:00,
2013-03-29 18:22:00,56.7,32.6,30.21,NW,315,0.0,0.0,40,0.00,,,0.00,Wunderground v.1.15,2013-03-29 22:22:00,
2013-03-29 18:26:00,56.7,33.2,30.21,NW,315,0.0,0.0,41,0.00,,,0.00,Wunderground v.1.15,2013-03-29 22:26:00,
2013-03-29 18:27:00,56.7,33.2,30.21,NW,315,0.0,0.0,41,0.00,,,0.00,Wunderground v.1.15,2013-03-29 22:27:00,
2013-03-29 18:30:00,56.7,32.6,30.21,NW,315,0.0,0.0,40,0.00,,,0.00,Wunderground v.1.15,2013-03-29 22:30:00,
2013-03-29 18:31:00,56.7,32.0,30.21,NW,313,0.0,0.0,39,0.00,,,0.00,Wunderground v.1.15,2013-03-29 22:31:00,
2013-03-29 18:33:00,56.7,33.2,30.21,West,281,0.0,3.0,41,0.00,,,0.00,Wunderground v.1.15,2013-03-29 22:33:00,
2013-03-29 18:37:00,56.5,35.4,30.21,SW,215,1.0,3.0,45,0.00,,,0.00,Wunderground v.1.15,2013-03-29 22:37:00,
2013-03-29 18:39:00,56.4,37.5,30.21,SSW,212,2.0,3.0,49,0.00,,,0.00,Wunderground v.1.15,2013-03-29 22:39:00,
2013-03-29 18:40:00,56.4,37.5,30.21,SSW,212,2.0,2.0,49,0.00,,,0.00,Wunderground v.1.15,2013-03-29 22:40:00,
2013-03-29 18:45:00,56.1,38.2,30.21,SW,229,2.0,4.0,51,0.00,,,0.00,Wunderground v.1.15,2013-03-29 22:45:00,
2013-03-29 18:46:00,56.1,38.2,30.21,SW,232,2.0,4.0,51,0.00,,,0.00,Wunderground v.1.15,2013-03-29 22:46:00,
2013-03-29 18:48:00,56.1,38.7,30.21,SW,232,2.0,5.0,52,0.00,,,0.00,Wunderground v.1.15,2013-03-29 22:48:00,
2013-03-29 18:51:00,55.9,39.0,30.21,SW,236,2.0,2.0,53,0.00,,,0.00,Wunderground v.1.15,2013-03-29 22:51:00,
2013-03-29 18:54:00,55.9,39.5,30.21,SW,230,2.0,3.0,54,0.00,,,0.00,Wunderground v.1.15,2013-03-29 22:54:00,
2013-03-29 18:56:00,55.9,39.5,30.21,West,280,2.0,3.0,54,0.00,,,0.00,Wunderground v.1.15,2013-03-29 22:56:00,
2013-03-29 18:57:00,55.9,39.5,30.21,West,260,2.0,5.0,54,0.00,,,0.00,Wunderground v.1.15,2013-03-29 22:57:00,
2013-03-29 19:03:00,56.2,39.3,30.21,WSW,254,1.0,2.0,53,0.00,,,0.00,Wunderground v.1.15,2013-03-29 23:03:00,
2013-03-29 19:04:00,56.2,39.3,30.21,WSW,254,1.0,2.0,53,0.00,,,0.00,Wunderground v.1.15,2013-03-29 23:04:00,
2013-03-29 19:05:00,56.2,39.3,30.21,WNW,288,1.0,2.0,53,0.00,,,0.00,Wunderground v.1.15,2013-03-29 23:05:00,
2013-03-29 19:07:00,56.4,39.0,30.21,West,271,1.0,2.0,52,0.00,,,0.00,Wunderground v.1.15,2013-03-29 23:07:00,
2013-03-29 19:08:00,56.4,39.5,30.21,West,264,1.0,2.0,53,0.00,,,0.00,Wunderground v.1.15,2013-03-29 23:08:00,
2013-03-29 19:10:00,56.4,39.5,30.21,WNW,284,1.0,1.0,53,0.00,,,0.00,Wunderground v.1.15,2013-03-29 23:10:00,
2013-03-29 19:11:00,56.4,39.5,30.21,WNW,284,1.0,1.0,53,0.00,,,0.00,Wunderground v.1.15,2013-03-29 23:11:00,
2013-03-29 19:14:00,56.4,39.5,30.21,WNW,284,1.0,1.0,53,0.00,,,0.00,Wunderground v.1.15,2013-03-29 23:14:00,
2013-03-29 19:15:00,56.4,39.5,30.21,WNW,284,1.0,1.0,53,0.00,,,0.00,Wunderground v.1.15,2013-03-29 23:15:00,
2013-03-29 19:18:00,56.4,39.5,30.21,WNW,284,0.0,1.0,53,0.00,,,0.00,Wunderground v.1.15,2013-03-29 23:18:00,
2013-03-29 19:19:00,56.5,39.6,30.21,WNW,284,0.0,1.0,53,0.00,,,0.00,Wunderground v.1.15,2013-03-29 23:19:00,
2013-03-29 19:21:00,56.5,39.6,30.21,WNW,284,0.0,0.0,53,0.00,,,0.00,Wunderground v.1.15,2013-03-29 23:21:00,
2013-03-29 19:23:00,56.4,39.5,30.21,WNW,285,0.0,2.0,53,0.00,,,0.00,Wunderground v.1.15,2013-03-29 23:23:00,
2013-03-29 19:26:00,56.4,40.0,30.21,WNW,285,0.0,2.0,54,0.00,,,0.00,Wunderground v.1.15,2013-03-29 23:26:00,
2013-03-29 19:28:00,56.4,40.0,30.21,WNW,294,0.0,2.0,54,0.00,,,0.00,Wunderground v.1.15,2013-03-29 23:28:00,
2013-03-29 19:29:00,56.2,39.8,30.21,WNW,294,1.0,2.0,54,0.00,,,0.00,Wunderground v.1.15,2013-03-29 23:29:00,
2013-03-29 19:31:00,56.2,40.2,30.22,NW,313,1.0,1.0,55,0.00,,,0.00,Wunderground v.1.15,2013-03-29 23:31:00,
2013-03-29 19:35:00,55.9,40.4,30.22,NW,306,1.0,1.0,56,0.00,,,0.00,Wunderground v.1.15,2013-03-29 23:35:00,
2013-03-29 19:36:00,55.8,40.3,30.22,NW,308,1.0,1.0,56,0.00,,,0.00,Wunderground v.1.15,2013-03-29 23:36:00,
2013-03-29 19:37:00,55.8,40.3,30.22,NW,308,1.0,1.0,56,0.00,,,0.00,Wunderground v.1.15,2013-03-29 23:37:00,
2013-03-29 19:42:00,55.5,40.5,30.22,NW,308,0.0,1.0,57,0.00,,,0.00,Wunderground v.1.15,2013-03-29 23:42:00,
2013-03-29 19:43:00,55.5,40.5,30.22,NW,308,0.0,1.0,57,0.00,,,0.00,Wunderground v.1.15,2013-03-29 23:43:00,
2013-03-29 19:47:00,55.2,40.2,30.22,NW,308,0.0,1.0,57,0.00,,,0.00,Wunderground v.1.15,2013-03-29 23:47:00,
2013-03-29 19:48:00,55.2,40.2,30.22,NW,308,0.0,1.0,57,0.00,,,0.00,Wunderground v.1.15,2013-03-29 23:48:00,
2013-03-29 19:51:00,55.0,40.0,30.22,NW,308,0.0,0.0,57,0.00,,,0.00,Wunderground v.1.15,2013-03-29 23:51:00,
2013-03-29 19:53:00,54.9,39.9,30.22,NW,308,0.0,0.0,57,0.00,,,0.00,Wunderground v.1.15,2013-03-29 23:53:00,
2013-03-29 19:54:00,54.9,39.9,30.22,NW,308,0.0,0.0,57,0.00,,,0.00,Wunderground v.1.15,2013-03-29 23:54:00,
2013-03-29 19:56:00,54.7,40.2,30.22,NW,308,0.0,0.0,58,0.00,,,0.00,Wunderground v.1.15,2013-03-29 23:56:00,
2013-03-29 19:57:00,54.6,40.1,30.22,NW,308,0.0,0.0,58,0.00,,,0.00,Wunderground v.1.15,2013-03-29 23:57:00,
2013-03-29 19:58:00,54.6,40.1,30.22,NW,308,0.0,0.0,58,0.00,,,0.00,Wunderground v.1.15,2013-03-29 23:58:00,
2013-03-29 20:02:00,54.1,40.1,30.22,NW,308,0.0,0.0,59,0.00,,,0.00,Wunderground v.1.15,2013-03-30 00:02:00,
2013-03-29 20:04:00,53.8,39.8,30.22,NW,308,0.0,0.0,59,0.00,,,0.00,Wunderground v.1.15,2013-03-30 00:04:00,
2013-03-29 20:06:00,53.6,39.6,30.22,NW,308,0.0,0.0,59,0.00,,,0.00,Wunderground v.1.15,2013-03-30 00:06:00,
2013-03-29 20:07:00,53.4,39.9,30.22,NW,308,0.0,0.0,60,0.00,,,0.00,Wunderground v.1.15,2013-03-30 00:07:00,
2013-03-29 20:11:00,53.1,39.6,30.22,NW,308,0.0,0.0,60,0.00,,,0.00,Wunderground v.1.15,2013-03-30 00:11:00,
2013-03-29 20:12:00,53.1,39.6,30.22,NW,308,0.0,0.0,60,0.00,,,0.00,Wunderground v.1.15,2013-03-30 00:12:00,
2013-03-29 20:18:00,52.8,39.7,30.22,NW,308,0.0,0.0,61,0.00,,,0.00,Wunderground v.1.15,2013-03-30 00:18:00,
2013-03-29 20:19:00,52.8,39.7,30.22,NW,308,0.0,0.0,61,0.00,,,0.00,Wunderground v.1.15,2013-03-30 00:19:00,
2013-03-29 20:20:00,52.8,39.7,30.22,NW,308,0.0,0.0,61,0.00,,,0.00,Wunderground v.1.15,2013-03-30 00:20:00,
2013-03-29 20:24:00,52.7,39.6,30.22,NW,308,0.0,0.0,61,0.00,,,0.00,Wunderground v.1.15,2013-03-30 00:24:00,
2013-03-29 20:26:00,52.5,39.8,30.22,NW,308,0.0,0.0,62,0.00,,,0.00,Wunderground v.1.15,2013-03-30 00:26:00,
2013-03-29 20:28:00,52.5,39.8,30.22,NW,308,0.0,0.0,62,0.00,,,0.00,Wunderground v.1.15,2013-03-30 00:28:00,
2013-03-29 20:29:00,52.4,39.8,30.22,NW,308,0.0,0.0,62,0.00,,,0.00,Wunderground v.1.15,2013-03-30 00:29:00,
2013-03-29 20:34:00,52.2,40.0,30.23,NW,308,0.0,0.0,63,0.00,,,0.00,Wunderground v.1.15,2013-03-30 00:34:00,
2013-03-29 20:37:00,51.9,39.7,30.23,NW,308,0.0,0.0,63,0.00,,,0.00,Wunderground v.1.15,2013-03-30 00:37:00,
2013-03-29 20:38:00,51.8,40.0,30.23,NW,308,0.0,0.0,64,0.00,,,0.00,Wunderground v.1.15,2013-03-30 00:38:00,
2013-03-29 20:42:00,51.6,39.8,30.23,NW,308,0.0,0.0,64,0.00,,,0.00,Wunderground v.1.15,2013-03-30 00:42:00,
2013-03-29 20:44:00,51.5,39.7,30.23,NW,308,0.0,0.0,64,0.00,,,0.00,Wunderground v.1.15,2013-03-30 00:44:00,
2013-03-29 20:46:00,51.5,39.7,30.23,NW,308,0.0,0.0,64,0.00,,,0.00,Wunderground v.1.15,2013-03-30 00:46:00,
2013-03-29 20:47:00,51.5,39.7,30.23,NW,308,0.0,0.0,64,0.00,,,0.00,Wunderground v.1.15,2013-03-30 00:47:00,
2013-03-29 20:50:00,51.5,38.5,30.23,NW,308,0.0,0.0,61,0.00,,,0.00,Wunderground v.1.15,2013-03-30 00:50:00,
2013-03-29 20:53:00,51.3,38.7,30.23,NW,308,0.0,0.0,62,0.00,,,0.00,Wunderground v.1.15,2013-03-30 00:53:00,
2013-03-29 20:55:00,51.2,37.8,30.23,NW,308,0.0,0.0,60,0.00,,,0.00,Wunderground v.1.15,2013-03-30 00:55:00,
2013-03-29 20:57:00,51.2,36.5,30.23,NW,308,0.0,0.0,57,0.00,,,0.00,Wunderground v.1.15,2013-03-30 00:57:00,
2013-03-29 21:00:00,51.3,34.7,30.23,NW,308,0.0,0.0,53,0.00,,,0.00,Wunderground v.1.15,2013-03-30 01:00:00,
2013-03-29 21:03:00,51.3,35.7,30.23,NW,308,0.0,0.0,55,0.00,,,0.00,Wunderground v.1.15,2013-03-30 01:03:00,
2013-03-29 21:06:00,51.3,34.7,30.23,NW,308,0.0,0.0,53,0.00,,,0.00,Wunderground v.1.15,2013-03-30 01:06:00,
2013-03-29 21:07:00,51.3,34.3,30.23,NW,308,0.0,0.0,52,0.00,,,0.00,Wunderground v.1.15,2013-03-30 01:07:00,
2013-03-29 21:09:00,51.3,34.7,30.23,NW,308,0.0,0.0,53,0.00,,,0.00,Wunderground v.1.15,2013-03-30 01:09:00,
2013-03-29 21:11:00,51.3,36.1,30.23,NW,308,0.0,0.0,56,0.00,,,0.00,Wunderground v.1.15,2013-03-30 01:11:00,
2013-03-29 21:14:00,51.3,35.7,30.23,NW,308,0.0,0.0,55,0.00,,,0.00,Wunderground v.1.15,2013-03-30 01:14:00,
2013-03-29 21:15:00,51.3,34.7,30.23,NW,308,0.0,0.0,53,0.00,,,0.00,Wunderground v.1.15,2013-03-30 01:15:00,
2013-03-29 21:18:00,51.3,33.8,30.23,NW,308,0.0,0.0,51,0.00,,,0.00,Wunderground v.1.15,2013-03-30 01:18:00,
2013-03-29 21:21:00,51.2,34.2,30.23,NW,308,0.0,0.0,52,0.00,,,0.00,Wunderground v.1.15,2013-03-30 01:21:00,
2013-03-29 21:22:00,51.2,33.7,30.23,NW,308,0.0,0.0,51,0.00,,,0.00,Wunderground v.1.15,2013-03-30 01:22:00,
2013-03-29 21:23:00,51.2,34.2,30.23,NW,308,0.0,0.0,52,0.00,,,0.00,Wunderground v.1.15,2013-03-30 01:23:00,
2013-03-29 21:26:00,51.0,34.0,30.23,NW,308,0.0,0.0,52,0.00,,,0.00,Wunderground v.1.15,2013-03-30 01:26:00,
2013-03-29 21:28:00,50.9,33.4,30.23,NW,308,0.0,0.0,51,0.00,,,0.00,Wunderground v.1.15,2013-03-30 01:28:00,
2013-03-29 21:32:00,50.9,33.4,30.24,NW,308,0.0,0.0,51,0.00,,,0.00,Wunderground v.1.15,2013-03-30 01:32:00,
2013-03-29 21:34:00,50.7,32.7,30.24,NW,308,0.0,0.0,50,0.00,,,0.00,Wunderground v.1.15,2013-03-30 01:34:00,
2013-03-29 21:36:00,50.7,32.7,30.24,NW,308,0.0,0.0,50,0.00,,,0.00,Wunderground v.1.15,2013-03-30 01:36:00,
2013-03-29 21:38:00,50.6,32.6,30.24,NW,308,0.0,0.0,50,0.00,,,0.00,Wunderground v.1.15,2013-03-30 01:38:00,
2013-03-29 21:39:00,50.6,32.1,30.24,NW,308,0.0,0.0,49,0.00,,,0.00,Wunderground v.1.15,2013-03-30 01:39:00,
2013-03-29 21:41:00,50.6,32.1,30.24,NW,308,0.0,0.0,49,0.00,,,0.00,Wunderground v.1.15,2013-03-30 01:41:00,
2013-03-29 21:44:00,50.4,31.9,30.24,NW,308,0.0,0.0,49,0.00,,,0.00,Wunderground v.1.15,2013-03-30 01:44:00,
2013-03-29 21:45:00,50.4,32.4,30.24,NW,308,0.0,0.0,50,0.00,,,0.00,Wunderground v.1.15,2013-03-30 01:45:00,
2013-03-29 21:46:00,50.4,32.4,30.24,NW,308,0.0,0.0,50,0.00,,,0.00,Wunderground v.1.15,2013-03-30 01:46:00,
2013-03-29 21:49:00,50.3,31.8,30.24,NW,308,0.0,0.0,49,0.00,,,0.00,Wunderground v.1.15,2013-03-30 01:49:00,
2013-03-29 21:50:00,50.3,31.8,30.24,NW,308,0.0,0.0,49,0.00,,,0.00,Wunderground v.1.15,2013-03-30 01:50:00,
2013-03-29 21:55:00,50.1,32.7,30.24,NW,308,0.0,0.0,51,0.00,,,0.00,Wunderground v.1.15,2013-03-30 01:55:00,
2013-03-29 21:56:00,50.0,33.1,30.24,NW,308,0.0,0.0,52,0.00,,,0.00,Wunderground v.1.15,2013-03-30 01:56:00,
2013-03-29 21:57:00,50.0,33.1,30.24,NW,308,0.0,0.0,52,0.00,,,0.00,Wunderground v.1.15,2013-03-30 01:57:00,
2013-03-29 22:01:00,49.7,33.7,30.24,NW,308,0.0,0.0,54,0.00,,,0.00,Wunderground v.1.15,2013-03-30 02:01:00,
2013-03-29 22:03:00,49.6,34.5,30.24,NW,308,0.0,0.0,56,0.00,,,0.00,Wunderground v.1.15,2013-03-30 02:03:00,
2013-03-29 22:05:00,49.4,34.3,30.24,NW,308,0.0,0.0,56,0.00,,,0.00,Wunderground v.1.15,2013-03-30 02:05:00,
2013-03-29 22:06:00,49.4,32.0,30.24,NW,308,0.0,0.0,51,0.00,,,0.00,Wunderground v.1.15,2013-03-30 02:06:00,
2013-03-29 22:09:00,49.6,30.7,30.24,NW,308,0.0,0.0,48,0.00,,,0.00,Wunderground v.1.15,2013-03-30 02:09:00,
2013-03-29 22:10:00,49.6,30.7,30.24,NW,308,0.0,0.0,48,0.00,,,0.00,Wunderground v.1.15,2013-03-30 02:10:00,
2013-03-29 22:13:00,49.6,33.6,30.24,NW,308,0.0,0.0,54,0.00,,,0.00,Wunderground v.1.15,2013-03-30 02:13:00,
2013-03-29 22:16:00,48.8,35.1,30.24,NW,308,0.0,0.0,59,0.00,,,0.00,Wunderground v.1.15,2013-03-30 02:16:00,
2013-03-29 22:18:00,48.5,34.8,30.24,NW,308,0.0,0.0,59,0.00,,,0.00,Wunderground v.1.15,2013-03-30 02:18:00,
2013-03-29 22:20:00,48.2,34.5,30.24,NW,308,0.0,0.0,59,0.00,,,0.00,Wunderground v.1.15,2013-03-30 02:20:00,
2013-03-29 22:22:00,48.1,34.4,30.24,NW,308,0.0,0.0,59,0.00,,,0.00,Wunderground v.1.15,2013-03-30 02:22:00,
2013-03-29 22:23:00,47.9,34.3,30.24,NW,308,0.0,0.0,59,0.00,,,0.00,Wunderground v.1.15,2013-03-30 02:23:00,
2013-03-29 22:27:00,47.6,33.5,30.24,NW,308,0.0,0.0,58,0.00,,,0.00,Wunderground v.1.15,2013-03-30 02:27:00,
2013-03-29 22:29:00,47.3,34.1,30.24,NW,308,0.0,0.0,60,0.00,,,0.00,Wunderground v.1.15,2013-03-30 02:29:00,
2013-03-29 22:35:00,46.7,34.0,30.25,NW,308,0.0,0.0,61,0.00,,,0.00,Wunderground v.1.15,2013-03-30 02:35:00,
2013-03-29 22:36:00,46.7,34.0,30.25,NW,308,0.0,0.0,61,0.00,,,0.00,Wunderground v.1.15,2013-03-30 02:36:00,
2013-03-29 22:37:00,46.6,33.4,30.25,NW,308,0.0,0.0,60,0.00,,,0.00,Wunderground v.1.15,2013-03-30 02:37:00,
2013-03-29 22:38:00,46.5,33.8,30.25,NW,308,0.0,0.0,61,0.00,,,0.00,Wunderground v.1.15,2013-03-30 02:38:00,
2013-03-29 22:42:00,46.2,34.3,30.25,NW,308,0.0,0.0,63,0.00,,,0.00,Wunderground v.1.15,2013-03-30 02:42:00,
2013-03-29 22:43:00,46.0,34.1,30.25,NW,308,0.0,0.0,63,0.00,,,0.00,Wunderground v.1.15,2013-03-30 02:43:00,
2013-03-29 22:46:00,45.7,33.8,30.25,NW,308,0.0,0.0,63,0.00,,,0.00,Wunderground v.1.15,2013-03-30 02:46:00,
2013-03-29 22:47:00,45.6,33.7,30.25,NW,308,0.0,0.0,63,0.00,,,0.00,Wunderground v.1.15,2013-03-30 02:47:00,
2013-03-29 22:50:00,45.4,32.3,30.25,NW,308,0.0,0.0,60,0.00,,,0.00,Wunderground v.1.15,2013-03-30 02:50:00,
2013-03-29 22:51:00,45.4,32.3,30.25,NW,308,0.0,0.0,60,0.00,,,0.00,Wunderground v.1.15,2013-03-30 02:51:00,
2013-03-29 22:52:00,45.4,31.9,30.25,NW,308,0.0,0.0,59,0.00,,,0.00,Wunderground v.1.15,2013-03-30 02:52:00,
2013-03-29 22:57:00,45.3,31.8,30.25,NW,308,0.0,0.0,59,0.00,,,0.00,Wunderground v.1.15,2013-03-30 02:57:00,
2013-03-29 22:58:00,45.1,31.6,30.25,NW,308,0.0,0.0,59,0.00,,,0.00,Wunderground v.1.15,2013-03-30 02:58:00,
2013-03-29 23:00:00,45.0,31.1,30.25,NW,308,0.0,0.0,58,0.00,,,0.00,Wunderground v.1.15,2013-03-30 03:00:00,
2013-03-29 23:03:00,45.0,31.1,30.25,NW,308,0.0,0.0,58,0.00,,,0.00,Wunderground v.1.15,2013-03-30 03:03:00,
2013-03-29 23:06:00,44.8,30.9,30.25,NW,308,0.0,0.0,58,0.00,,,0.00,Wunderground v.1.15,2013-03-30 03:06:00,
2013-03-29 23:07:00,44.8,30.9,30.25,NW,308,0.0,0.0,58,0.00,,,0.00,Wunderground v.1.15,2013-03-30 03:07:00,
2013-03-29 23:09:00,44.7,30.4,30.25,NW,308,0.0,0.0,57,0.00,,,0.00,Wunderground v.1.15,2013-03-30 03:09:00,
2013-03-29 23:13:00,44.6,30.7,30.25,NW,308,0.0,0.0,58,0.00,,,0.00,Wunderground v.1.15,2013-03-30 03:13:00,
2013-03-29 23:17:00,44.3,30.4,30.25,NW,308,0.0,0.0,58,0.00,,,0.00,Wunderground v.1.15,2013-03-30 03:17:00,
2013-03-29 23:20:00,44.0,30.6,30.25,NW,308,0.0,0.0,59,0.00,,,0.00,Wunderground v.1.15,2013-03-30 03:20:00,
2013-03-29 23:23:00,43.8,31.2,30.25,NW,308,0.0,0.0,61,0.00,,,0.00,Wunderground v.1.15,2013-03-30 03:23:00,
2013-03-29 23:24:00,43.7,31.1,30.25,NW,308,0.0,0.0,61,0.00,,,0.00,Wunderground v.1.15,2013-03-30 03:24:00,
2013-03-29 23:26:00,43.7,31.1,30.25,NW,308,0.0,0.0,61,0.00,,,0.00,Wunderground v.1.15,2013-03-30 03:26:00,
2013-03-29 23:31:00,43.3,30.3,30.25,NW,308,0.0,0.0,60,0.00,,,0.00,Wunderground v.1.15,2013-03-30 03:31:00,
2013-03-29 23:32:00,43.1,30.6,30.25,NW,308,0.0,0.0,61,0.00,,,0.00,Wunderground v.1.15,2013-03-30 03:32:00,
2013-03-29 23:34:00,43.0,30.9,30.25,NW,308,0.0,0.0,62,0.00,,,0.00,Wunderground v.1.15,2013-03-30 03:34:00,
2013-03-29 23:36:00,43.0,30.9,30.25,NW,308,0.0,0.0,62,0.00,,,0.00,Wunderground v.1.15,2013-03-30 03:36:00,
2013-03-29 23:39:00,42.8,30.7,30.25,NW,308,0.0,0.0,62,0.00,,,0.00,Wunderground v.1.15,2013-03-30 03:39:00,
2013-03-29 23:42:00,42.7,30.6,30.25,NW,308,0.0,0.0,62,0.00,,,0.00,Wunderground v.1.15,2013-03-30 03:42:00,
2013-03-29 23:45:00,42.6,30.5,30.25,NW,308,0.0,0.0,62,0.00,,,0.00,Wunderground v.1.15,2013-03-30 03:45:00,
2013-03-29 23:46:00,42.6,30.5,30.25,NW,308,0.0,0.0,62,0.00,,,0.00,Wunderground v.1.15,2013-03-30 03:46:00,
2013-03-29 23:50:00,42.3,30.6,30.25,NW,308,0.0,0.0,63,0.00,,,0.00,Wunderground v.1.15,2013-03-30 03:50:00,
2013-03-29 23:51:00,42.3,31.0,30.25,NW,308,0.0,0.0,64,0.00,,,0.00,Wunderground v.1.15,2013-03-30 03:51:00,
2013-03-29 23:55:00,42.0,31.5,30.25,NW,308,0.0,0.0,66,0.00,,,0.00,Wunderground v.1.15,2013-03-30 03:55:00,
2013-03-29 23:57:00,41.8,31.3,30.25,NW,308,0.0,0.0,66,0.00,,,0.00,Wunderground v.1.15,2013-03-30 03:57:00,
2013-03-29 23:59:00,41.7,31.5,30.25,NW,308,0.0,0.0,67,0.00,,,0.00,Wunderground v.1.15,2013-03-30 03:59:00,